2016 Cux-Wetter.de -Die Nutzung der Wetterdaten nur mit ausdrcklicher Genehmigung
Wetterdaten: Dienstag, 13.02.2018
Datum Zeit Temp. A. Feuchte A. Luftdruck Regen Wind Richtung Richtung Sonnenschein Solar Taupunkt Windchill Windben
13.02.2018 00:00 1,6 C 93 % 1010,9 hPa 0,0 l/m 12,1 km/h (2 Bft) S-SW 210 0 min 0 W/m 0,6 C -3,2 C 16,1 km/h (3 Bft)
13.02.2018 00:03 1,6 C 93 % 1010,9 hPa 0,0 l/m 11,9 km/h (2 Bft) SW 225 0 min 0 W/m 0,6 C -3,1 C 19,3 km/h (3 Bft)
13.02.2018 00:06 1,6 C 93 % 1010,9 hPa 0,0 l/m 11,0 km/h (2 Bft) SW 226 0 min 0 W/m 0,6 C -2,4 C 19,3 km/h (3 Bft)
13.02.2018 00:09 1,6 C 93 % 1010,9 hPa 0,0 l/m 9,6 km/h (2 Bft) SW 223 0 min 0 W/m 0,6 C -1,4 C 14,5 km/h (3 Bft)
13.02.2018 00:12 1,5 C 93 % 1010,9 hPa 0,0 l/m 12,8 km/h (3 Bft) S 180 0 min 0 W/m 0,5 C -3,8 C 22,5 km/h (4 Bft)
13.02.2018 00:15 1,5 C 93 % 1011,0 hPa 0,0 l/m 11,8 km/h (2 Bft) S-SW 210 0 min 0 W/m 0,5 C -3,1 C 17,7 km/h (3 Bft)
13.02.2018 00:18 1,4 C 93 % 1011,0 hPa 0,0 l/m 11,2 km/h (2 Bft) SW 236 0 min 0 W/m 0,4 C -2,8 C 19,3 km/h (3 Bft)
13.02.2018 00:21 1,4 C 93 % 1011,0 hPa 0,0 l/m 11,4 km/h (2 Bft) SW 229 0 min 0 W/m 0,4 C -3,0 C 19,3 km/h (3 Bft)
13.02.2018 00:24 1,4 C 93 % 1011,0 hPa 0,0 l/m 11,2 km/h (2 Bft) SW 230 0 min 0 W/m 0,4 C -2,8 C 19,3 km/h (3 Bft)
13.02.2018 00:27 1,4 C 93 % 1011,0 hPa 0,0 l/m 11,7 km/h (2 Bft) SW 236 0 min 0 W/m 0,4 C -3,2 C 17,7 km/h (3 Bft)
13.02.2018 00:30 1,3 C 93 % 1011,0 hPa 0,0 l/m 12,4 km/h (2 Bft) SW 214 0 min 0 W/m 0,3 C -3,8 C 17,7 km/h (3 Bft)
13.02.2018 00:33 1,4 C 93 % 1011,1 hPa 0,0 l/m 13,5 km/h (3 Bft) S-SW 203 0 min 0 W/m 0,4 C -4,4 C 20,9 km/h (4 Bft)
13.02.2018 00:36 1,3 C 93 % 1011,1 hPa 0,0 l/m 11,7 km/h (2 Bft) W-SW 254 0 min 0 W/m 0,3 C -3,3 C 22,5 km/h (4 Bft)
13.02.2018 00:39 1,4 C 93 % 1011,0 hPa 0,0 l/m 12,3 km/h (2 Bft) S-SW 208 0 min 0 W/m 0,4 C -3,6 C 24,1 km/h (4 Bft)
13.02.2018 00:42 1,3 C 93 % 1011,1 hPa 0,0 l/m 11,4 km/h (2 Bft) SW 232 0 min 0 W/m 0,3 C -3,1 C 19,3 km/h (3 Bft)
13.02.2018 00:45 1,3 C 93 % 1011,1 hPa 0,0 l/m 9,5 km/h (2 Bft) SW 226 0 min 0 W/m 0,3 C -1,6 C 12,9 km/h (3 Bft)
13.02.2018 00:48 1,3 C 93 % 1011,1 hPa 0,0 l/m 12,1 km/h (2 Bft) S-SW 211 0 min 0 W/m 0,3 C -3,6 C 20,9 km/h (4 Bft)
13.02.2018 00:51 1,3 C 93 % 1011,0 hPa 0,0 l/m 12,8 km/h (3 Bft) SW 236 0 min 0 W/m 0,3 C -4,0 C 19,3 km/h (3 Bft)
13.02.2018 00:54 1,3 C 93 % 1011,1 hPa 0,0 l/m 11,4 km/h (2 Bft) S-SW 203 0 min 0 W/m 0,3 C -3,1 C 19,3 km/h (3 Bft)
13.02.2018 00:57 1,3 C 93 % 1011,1 hPa 0,0 l/m 11,4 km/h (2 Bft) SW 236 0 min 0 W/m 0,3 C -3,1 C 17,7 km/h (3 Bft)
13.02.2018 01:00 1,3 C 93 % 1011,1 hPa 0,0 l/m 10,2 km/h (2 Bft) S-SW 213 0 min 0 W/m 0,3 C -2,2 C 14,5 km/h (3 Bft)
13.02.2018 01:03 1,3 C 93 % 1011,1 hPa 0,0 l/m 11,5 km/h (2 Bft) S 182 0 min 0 W/m 0,3 C -3,2 C 17,7 km/h (3 Bft)
13.02.2018 01:06 1,3 C 93 % 1011,1 hPa 0,0 l/m 10,9 km/h (2 Bft) SW 219 0 min 0 W/m 0,3 C -2,7 C 17,7 km/h (3 Bft)
13.02.2018 01:09 1,3 C 93 % 1011,1 hPa 0,0 l/m 11,4 km/h (2 Bft) W-SW 243 0 min 0 W/m 0,3 C -3,1 C 20,9 km/h (4 Bft)
13.02.2018 01:12 1,3 C 93 % 1011,1 hPa 0,0 l/m 10,9 km/h (2 Bft) SW 232 0 min 0 W/m 0,3 C -2,7 C 17,7 km/h (3 Bft)
13.02.2018 01:15 1,3 C 93 % 1011,1 hPa 0,0 l/m 11,8 km/h (2 Bft) S-SW 205 0 min 0 W/m 0,3 C -3,4 C 17,7 km/h (3 Bft)
13.02.2018 01:18 1,3 C 93 % 1011,1 hPa 0,0 l/m 9,5 km/h (2 Bft) SW 217 0 min 0 W/m 0,3 C -1,6 C 12,9 km/h (3 Bft)
13.02.2018 01:21 1,3 C 93 % 1011,1 hPa 0,0 l/m 9,8 km/h (2 Bft) S-SW 207 0 min 0 W/m 0,3 C -1,9 C 14,5 km/h (3 Bft)
13.02.2018 01:24 1,3 C 93 % 1011,1 hPa 0,0 l/m 10,0 km/h (2 Bft) SW 217 0 min 0 W/m 0,3 C -2,0 C 16,1 km/h (3 Bft)
13.02.2018 01:27 1,3 C 93 % 1011,1 hPa 0,0 l/m 10,3 km/h (2 Bft) SW 214 0 min 0 W/m 0,3 C -2,3 C 16,1 km/h (3 Bft)
13.02.2018 01:30 1,3 C 93 % 1011,1 hPa 0,0 l/m 10,9 km/h (2 Bft) S-SW 209 0 min 0 W/m 0,3 C -2,7 C 16,1 km/h (3 Bft)
13.02.2018 01:33 1,3 C 93 % 1011,1 hPa 0,0 l/m 12,0 km/h (2 Bft) SW 218 0 min 0 W/m 0,3 C -3,5 C 19,3 km/h (3 Bft)
13.02.2018 01:36 1,3 C 93 % 1011,1 hPa 0,0 l/m 10,7 km/h (2 Bft) SW 219 0 min 0 W/m 0,3 C -2,6 C 17,7 km/h (3 Bft)
13.02.2018 01:39 1,3 C 93 % 1011,1 hPa 0,0 l/m 9,4 km/h (2 Bft) S 185 0 min 0 W/m 0,3 C -1,5 C 12,9 km/h (3 Bft)
13.02.2018 01:42 1,2 C 93 % 1011,1 hPa 0,0 l/m 12,4 km/h (2 Bft) S-SW 210 0 min 0 W/m 0,2 C -3,9 C 20,9 km/h (4 Bft)
13.02.2018 01:45 1,2 C 93 % 1011,1 hPa 0,0 l/m 10,4 km/h (2 Bft) SW 219 0 min 0 W/m 0,2 C -2,4 C 19,3 km/h (3 Bft)
13.02.2018 01:48 1,2 C 93 % 1011,1 hPa 0,0 l/m 12,8 km/h (3 Bft) S-SW 196 0 min 0 W/m 0,2 C -4,2 C 24,1 km/h (4 Bft)
13.02.2018 01:51 1,2 C 93 % 1011,1 hPa 0,0 l/m 10,0 km/h (2 Bft) S-SW 203 0 min 0 W/m 0,2 C -2,1 C 17,7 km/h (3 Bft)
13.02.2018 01:54 1,2 C 93 % 1011,0 hPa 0,0 l/m 9,9 km/h (2 Bft) S-SW 202 0 min 0 W/m 0,2 C -2,0 C 14,5 km/h (3 Bft)
13.02.2018 01:57 1,1 C 93 % 1011,1 hPa 0,0 l/m 10,8 km/h (2 Bft) SW 216 0 min 0 W/m 0,1 C -2,9 C 14,5 km/h (3 Bft)
13.02.2018 02:00 1,1 C 93 % 1011,0 hPa 0,0 l/m 11,7 km/h (2 Bft) S-SW 192 0 min 0 W/m 0,1 C -3,5 C 22,5 km/h (4 Bft)
13.02.2018 02:03 1,1 C 93 % 1011,1 hPa 0,0 l/m 10,4 km/h (2 Bft) SW 225 0 min 0 W/m 0,1 C -2,6 C 17,7 km/h (3 Bft)
13.02.2018 02:06 1,0 C 93 % 1011,0 hPa 0,0 l/m 11,3 km/h (2 Bft) S-SW 207 0 min 0 W/m -0,0 C -3,3 C 17,7 km/h (3 Bft)
13.02.2018 02:09 1,0 C 93 % 1011,0 hPa 0,0 l/m 12,6 km/h (3 Bft) W-SW 240 0 min 0 W/m -0,0 C -4,3 C 19,3 km/h (3 Bft)
13.02.2018 02:12 1,0 C 93 % 1011,0 hPa 0,0 l/m 10,7 km/h (2 Bft) SW 216 0 min 0 W/m -0,0 C -2,9 C 17,7 km/h (3 Bft)
13.02.2018 02:15 0,9 C 93 % 1011,0 hPa 0,0 l/m 11,6 km/h (2 Bft) SW 217 0 min 0 W/m -0,1 C -3,7 C 22,5 km/h (4 Bft)
13.02.2018 02:18 0,9 C 93 % 1011,0 hPa 0,0 l/m 10,5 km/h (2 Bft) SW 223 0 min 0 W/m -0,1 C -2,9 C 17,7 km/h (3 Bft)
13.02.2018 02:21 0,9 C 93 % 1011,0 hPa 0,0 l/m 10,1 km/h (2 Bft) SW 228 0 min 0 W/m -0,1 C -2,5 C 14,5 km/h (3 Bft)
13.02.2018 02:24 0,9 C 93 % 1011,0 hPa 0,0 l/m 11,0 km/h (2 Bft) S-SW 199 0 min 0 W/m -0,1 C -3,2 C 16,1 km/h (3 Bft)
13.02.2018 02:27 0,8 C 93 % 1011,0 hPa 0,0 l/m 11,7 km/h (2 Bft) S 182 0 min 0 W/m -0,2 C -3,9 C 19,3 km/h (3 Bft)
13.02.2018 02:30 0,8 C 93 % 1011,0 hPa 0,0 l/m 11,2 km/h (2 Bft) S-SW 205 0 min 0 W/m -0,2 C -3,5 C 16,1 km/h (3 Bft)
13.02.2018 02:33 0,8 C 93 % 1011,0 hPa 0,0 l/m 10,7 km/h (2 Bft) SW 229 0 min 0 W/m -0,2 C -3,1 C 16,1 km/h (3 Bft)
13.02.2018 02:36 0,8 C 93 % 1011,0 hPa 0,0 l/m 12,1 km/h (2 Bft) S-SW 207 0 min 0 W/m -0,2 C -4,2 C 19,3 km/h (3 Bft)
13.02.2018 02:39 0,8 C 93 % 1011,0 hPa 0,0 l/m 12,6 km/h (3 Bft) S-SW 213 0 min 0 W/m -0,2 C -4,5 C 19,3 km/h (3 Bft)
13.02.2018 02:42 0,8 C 93 % 1011,0 hPa 0,0 l/m 11,9 km/h (2 Bft) SW 221 0 min 0 W/m -0,2 C -4,0 C 19,3 km/h (3 Bft)
13.02.2018 02:45 0,8 C 93 % 1010,9 hPa 0,0 l/m 11,3 km/h (2 Bft) S 189 0 min 0 W/m -0,2 C -3,6 C 19,3 km/h (3 Bft)
13.02.2018 02:48 0,8 C 93 % 1010,9 hPa 0,0 l/m 11,6 km/h (2 Bft) SW 222 0 min 0 W/m -0,2 C -3,8 C 16,1 km/h (3 Bft)
13.02.2018 02:51 0,8 C 93 % 1011,0 hPa 0,0 l/m 11,4 km/h (2 Bft) S-SW 213 0 min 0 W/m -0,2 C -3,6 C 20,9 km/h (4 Bft)
13.02.2018 02:54 0,8 C 93 % 1011,0 hPa 0,0 l/m 11,1 km/h (2 Bft) SW 224 0 min 0 W/m -0,2 C -3,4 C 16,1 km/h (3 Bft)
13.02.2018 02:57 0,7 C 93 % 1011,0 hPa 0,0 l/m 10,9 km/h (2 Bft) S 190 0 min 0 W/m -0,3 C -3,4 C 19,3 km/h (3 Bft)
13.02.2018 03:00 0,7 C 93 % 1011,0 hPa 0,0 l/m 12,0 km/h (2 Bft) S-SW 212 0 min 0 W/m -0,3 C -4,2 C 17,7 km/h (3 Bft)
13.02.2018 03:03 0,7 C 93 % 1011,0 hPa 0,0 l/m 10,3 km/h (2 Bft) SW 215 0 min 0 W/m -0,3 C -2,9 C 12,9 km/h (3 Bft)
13.02.2018 03:06 0,7 C 93 % 1011,0 hPa 0,0 l/m 11,5 km/h (2 Bft) SW 223 0 min 0 W/m -0,3 C -3,8 C 19,3 km/h (3 Bft)
13.02.2018 03:09 0,7 C 93 % 1011,0 hPa 0,0 l/m 10,5 km/h (2 Bft) SW 217 0 min 0 W/m -0,3 C -3,1 C 17,7 km/h (3 Bft)
13.02.2018 03:12 0,7 C 93 % 1010,9 hPa 0,0 l/m 10,0 km/h (2 Bft) SW 217 0 min 0 W/m -0,3 C -2,7 C 16,1 km/h (3 Bft)
13.02.2018 03:15 0,7 C 93 % 1011,0 hPa 0,0 l/m 11,1 km/h (2 Bft) S-SW 204 0 min 0 W/m -0,3 C -3,5 C 17,7 km/h (3 Bft)
13.02.2018 03:18 0,6 C 93 % 1010,9 hPa 0,0 l/m 10,8 km/h (2 Bft) SW 218 0 min 0 W/m -0,4 C -3,4 C 14,5 km/h (3 Bft)
13.02.2018 03:21 0,6 C 93 % 1010,9 hPa 0,0 l/m 10,9 km/h (2 Bft) S 171 0 min 0 W/m -0,4 C -3,5 C 14,5 km/h (3 Bft)
13.02.2018 03:24 0,6 C 93 % 1010,9 hPa 0,0 l/m 9,4 km/h (2 Bft) W-SW 246 0 min 0 W/m -0,4 C -2,3 C 16,1 km/h (3 Bft)
13.02.2018 03:27 0,6 C 93 % 1010,9 hPa 0,0 l/m 9,7 km/h (2 Bft) SW 218 0 min 0 W/m -0,4 C -2,5 C 17,7 km/h (3 Bft)
13.02.2018 03:30 0,6 C 93 % 1010,9 hPa 0,0 l/m 10,8 km/h (2 Bft) S-SW 213 0 min 0 W/m -0,4 C -3,4 C 19,3 km/h (3 Bft)
13.02.2018 03:33 0,6 C 93 % 1010,8 hPa 0,0 l/m 11,1 km/h (2 Bft) S-SW 204 0 min 0 W/m -0,4 C -3,7 C 17,7 km/h (3 Bft)
13.02.2018 03:36 0,5 C 93 % 1010,9 hPa 0,0 l/m 11,5 km/h (2 Bft) S-SW 205 0 min 0 W/m -0,5 C -4,1 C 17,7 km/h (3 Bft)
13.02.2018 03:39 0,5 C 93 % 1010,9 hPa 0,0 l/m 11,5 km/h (2 Bft) S-SW 209 0 min 0 W/m -0,5 C -4,1 C 17,7 km/h (3 Bft)
13.02.2018 03:42 0,5 C 94 % 1010,9 hPa 0,0 l/m 12,9 km/h (3 Bft) SW 214 0 min 0 W/m -0,4 C -5,0 C 20,9 km/h (4 Bft)
13.02.2018 03:45 0,5 C 94 % 1010,9 hPa 0,0 l/m 13,4 km/h (3 Bft) S 191 0 min 0 W/m -0,4 C -5,4 C 19,3 km/h (3 Bft)
13.02.2018 03:48 0,5 C 93 % 1010,9 hPa 0,0 l/m 11,8 km/h (2 Bft) S-SW 194 0 min 0 W/m -0,5 C -4,3 C 17,7 km/h (3 Bft)
13.02.2018 03:51 0,4 C 93 % 1010,9 hPa 0,0 l/m 10,8 km/h (2 Bft) SW 236 0 min 0 W/m -0,6 C -3,6 C 17,7 km/h (3 Bft)
13.02.2018 03:54 0,4 C 93 % 1010,9 hPa 0,0 l/m 11,3 km/h (2 Bft) W-SW 237 0 min 0 W/m -0,6 C -4,0 C 17,7 km/h (3 Bft)
13.02.2018 03:57 0,4 C 93 % 1010,8 hPa 0,0 l/m 8,7 km/h (2 Bft) S-SW 209 0 min 0 W/m -0,6 C -1,9 C 14,5 km/h (3 Bft)
13.02.2018 04:00 0,4 C 93 % 1010,9 hPa 0,0 l/m 9,1 km/h (2 Bft) SW 228 0 min 0 W/m -0,6 C -2,2 C 14,5 km/h (3 Bft)
13.02.2018 04:03 0,4 C 93 % 1010,8 hPa 0,0 l/m 10,1 km/h (2 Bft) S-SW 205 0 min 0 W/m -0,6 C -3,1 C 14,5 km/h (3 Bft)
13.02.2018 04:06 0,4 C 93 % 1010,9 hPa 0,0 l/m 7,8 km/h (2 Bft) S-SW 213 0 min 0 W/m -0,6 C -1,0 C 12,9 km/h (3 Bft)
13.02.2018 04:09 0,3 C 93 % 1010,9 hPa 0,0 l/m 8,0 km/h (2 Bft) S-SW 208 0 min 0 W/m -0,7 C -1,3 C 17,7 km/h (3 Bft)
13.02.2018 04:12 0,3 C 93 % 1010,9 hPa 0,0 l/m 8,9 km/h (2 Bft) S-SW 212 0 min 0 W/m -0,7 C -2,2 C 12,9 km/h (3 Bft)
13.02.2018 04:15 0,3 C 93 % 1010,9 hPa 0,0 l/m 8,7 km/h (2 Bft) SW 223 0 min 0 W/m -0,7 C -2,0 C 12,9 km/h (3 Bft)
13.02.2018 04:18 0,3 C 93 % 1010,9 hPa 0,0 l/m 9,7 km/h (2 Bft) S-SW 211 0 min 0 W/m -0,7 C -2,9 C 12,9 km/h (3 Bft)
13.02.2018 04:21 0,3 C 93 % 1010,9 hPa 0,0 l/m 10,8 km/h (2 Bft) S-SW 213 0 min 0 W/m -0,7 C -3,8 C 17,7 km/h (3 Bft)
13.02.2018 04:24 0,2 C 93 % 1010,9 hPa 0,0 l/m 10,8 km/h (2 Bft) S-SW 202 0 min 0 W/m -0,8 C -3,9 C 16,1 km/h (3 Bft)
13.02.2018 04:27 0,2 C 93 % 1010,9 hPa 0,0 l/m 10,6 km/h (2 Bft) SW 228 0 min 0 W/m -0,8 C -3,7 C 19,3 km/h (3 Bft)
13.02.2018 04:30 0,2 C 93 % 1010,9 hPa 0,0 l/m 11,4 km/h (2 Bft) W-SW 240 0 min 0 W/m -0,8 C -4,3 C 19,3 km/h (3 Bft)
13.02.2018 04:33 0,2 C 93 % 1010,9 hPa 0,0 l/m 11,1 km/h (2 Bft) SW 225 0 min 0 W/m -0,8 C -4,1 C 17,7 km/h (3 Bft)
13.02.2018 04:36 0,2 C 93 % 1010,8 hPa 0,0 l/m 10,5 km/h (2 Bft) SW 224 0 min 0 W/m -0,8 C -3,6 C 17,7 km/h (3 Bft)
13.02.2018 04:39 0,1 C 93 % 1010,8 hPa 0,0 l/m 9,7 km/h (2 Bft) SW 225 0 min 0 W/m -0,9 C -3,1 C 19,3 km/h (3 Bft)
13.02.2018 04:42 0,1 C 93 % 1010,8 hPa 0,0 l/m 11,0 km/h (2 Bft) S-SW 204 0 min 0 W/m -0,9 C -4,1 C 17,7 km/h (3 Bft)
13.02.2018 04:45 0,1 C 93 % 1010,8 hPa 0,0 l/m 10,7 km/h (2 Bft) S-SW 209 0 min 0 W/m -0,9 C -3,9 C 17,7 km/h (3 Bft)
13.02.2018 04:48 0,1 C 93 % 1010,8 hPa 0,0 l/m 10,9 km/h (2 Bft) SW 217 0 min 0 W/m -0,9 C -4,1 C 19,3 km/h (3 Bft)
13.02.2018 04:51 0,1 C 93 % 1010,8 hPa 0,0 l/m 9,7 km/h (2 Bft) S 186 0 min 0 W/m -0,9 C -3,1 C 16,1 km/h (3 Bft)
13.02.2018 04:54 0,0 C 93 % 1010,8 hPa 0,0 l/m 10,1 km/h (2 Bft) SW 217 0 min 0 W/m -1,0 C -3,5 C 14,5 km/h (3 Bft)
13.02.2018 04:57 0,0 C 93 % 1010,8 hPa 0,0 l/m 9,1 km/h (2 Bft) S-SW 210 0 min 0 W/m -1,0 C -2,7 C 19,3 km/h (3 Bft)
13.02.2018 05:00 0,0 C 93 % 1010,8 hPa 0,0 l/m 7,5 km/h (2 Bft) SW 223 0 min 0 W/m -1,0 C -1,1 C 12,9 km/h (3 Bft)
13.02.2018 05:03 -0,1 C 93 % 1010,7 hPa 0,0 l/m 8,7 km/h (2 Bft) S 190 0 min 0 W/m -1,1 C -2,4 C 17,7 km/h (3 Bft)
13.02.2018 05:06 -0,1 C 93 % 1010,8 hPa 0,0 l/m 7,0 km/h (2 Bft) S 178 0 min 0 W/m -1,1 C -0,7 C 16,1 km/h (3 Bft)
13.02.2018 05:09 -0,1 C 93 % 1010,7 hPa 0,0 l/m 8,2 km/h (2 Bft) S-SW 194 0 min 0 W/m -1,1 C -1,9 C 17,7 km/h (3 Bft)
13.02.2018 05:12 -0,1 C 93 % 1010,8 hPa 0,0 l/m 6,5 km/h (2 Bft) W-SW 251 0 min 0 W/m -1,1 C -0,2 C 11,3 km/h (2 Bft)
13.02.2018 05:15 -0,1 C 93 % 1010,8 hPa 0,0 l/m 8,4 km/h (2 Bft) S 186 0 min 0 W/m -1,1 C -2,1 C 14,5 km/h (3 Bft)
13.02.2018 05:18 -0,2 C 93 % 1010,8 hPa 0,0 l/m 7,8 km/h (2 Bft) S-SW 195 0 min 0 W/m -1,2 C -1,7 C 12,9 km/h (3 Bft)
13.02.2018 05:21 -0,2 C 93 % 1010,8 hPa 0,0 l/m 6,2 km/h (2 Bft) S 174 0 min 0 W/m -1,2 C -0,2 C 14,5 km/h (3 Bft)
13.02.2018 05:24 -0,2 C 93 % 1010,8 hPa 0,0 l/m 7,3 km/h (2 Bft) S 190 0 min 0 W/m -1,2 C -1,1 C 14,5 km/h (3 Bft)
13.02.2018 05:27 -0,2 C 93 % 1010,8 hPa 0,0 l/m 8,2 km/h (2 Bft) S-SW 205 0 min 0 W/m -1,2 C -2,1 C 12,9 km/h (3 Bft)
13.02.2018 05:30 -0,2 C 93 % 1010,8 hPa 0,0 l/m 9,6 km/h (2 Bft) S 174 0 min 0 W/m -1,2 C -3,3 C 14,5 km/h (3 Bft)
13.02.2018 05:33 -0,2 C 93 % 1010,8 hPa 0,0 l/m 10,0 km/h (2 Bft) S 169 0 min 0 W/m -1,2 C -3,7 C 16,1 km/h (3 Bft)
13.02.2018 05:36 -0,3 C 93 % 1010,9 hPa 0,0 l/m 8,3 km/h (2 Bft) S-SW 196 0 min 0 W/m -1,3 C -2,3 C 14,5 km/h (3 Bft)
13.02.2018 05:39 -0,3 C 93 % 1010,9 hPa 0,0 l/m 7,3 km/h (2 Bft) S 182 0 min 0 W/m -1,3 C -1,2 C 12,9 km/h (3 Bft)
13.02.2018 05:42 -0,3 C 93 % 1010,8 hPa 0,0 l/m 8,4 km/h (2 Bft) S 175 0 min 0 W/m -1,3 C -2,4 C 14,5 km/h (3 Bft)
13.02.2018 05:45 -0,3 C 93 % 1010,9 hPa 0,0 l/m 8,3 km/h (2 Bft) S 177 0 min 0 W/m -1,3 C -2,3 C 12,9 km/h (3 Bft)
13.02.2018 05:48 -0,3 C 94 % 1010,9 hPa 0,0 l/m 8,7 km/h (2 Bft) S 174 0 min 0 W/m -1,1 C -2,6 C 17,7 km/h (3 Bft)
13.02.2018 05:51 -0,4 C 94 % 1010,8 hPa 0,0 l/m 7,7 km/h (2 Bft) S 181 0 min 0 W/m -1,2 C -1,8 C 14,5 km/h (3 Bft)
13.02.2018 05:54 -0,4 C 94 % 1010,8 hPa 0,0 l/m 7,9 km/h (2 Bft) S 170 0 min 0 W/m -1,2 C -2,0 C 14,5 km/h (3 Bft)
13.02.2018 05:57 -0,4 C 94 % 1010,8 hPa 0,0 l/m 8,0 km/h (2 Bft) S-SW 212 0 min 0 W/m -1,2 C -2,1 C 14,5 km/h (3 Bft)
13.02.2018 06:00 -0,4 C 94 % 1010,8 hPa 0,0 l/m 7,6 km/h (2 Bft) S-SW 211 0 min 0 W/m -1,2 C -1,7 C 14,5 km/h (3 Bft)
13.02.2018 06:03 -0,4 C 94 % 1010,8 hPa 0,0 l/m 8,3 km/h (2 Bft) S-SW 201 0 min 0 W/m -1,2 C -2,4 C 16,1 km/h (3 Bft)
13.02.2018 06:06 -0,4 C 94 % 1010,7 hPa 0,0 l/m 8,3 km/h (2 Bft) S 179 0 min 0 W/m -1,2 C -2,4 C 16,1 km/h (3 Bft)
13.02.2018 06:09 -0,4 C 94 % 1010,7 hPa 0,0 l/m 8,2 km/h (2 Bft) S-SW 200 0 min 0 W/m -1,2 C -2,3 C 14,5 km/h (3 Bft)
13.02.2018 06:12 -0,4 C 94 % 1010,7 hPa 0,0 l/m 8,2 km/h (2 Bft) S-SO 165 0 min 0 W/m -1,2 C -2,3 C 14,5 km/h (3 Bft)
13.02.2018 06:15 -0,4 C 94 % 1010,8 hPa 0,0 l/m 7,8 km/h (2 Bft) S 188 0 min 0 W/m -1,2 C -1,9 C 12,9 km/h (3 Bft)
13.02.2018 06:18 -0,4 C 94 % 1010,8 hPa 0,0 l/m 7,3 km/h (2 Bft) S 183 0 min 0 W/m -1,2 C -1,3 C 12,9 km/h (3 Bft)
13.02.2018 06:21 -0,4 C 94 % 1010,8 hPa 0,0 l/m 6,5 km/h (2 Bft) S 179 0 min 0 W/m -1,2 C -0,5 C 12,9 km/h (3 Bft)
13.02.2018 06:24 -0,4 C 94 % 1010,8 hPa 0,0 l/m 7,6 km/h (2 Bft) S 184 0 min 0 W/m -1,2 C -1,7 C 16,1 km/h (3 Bft)
13.02.2018 06:27 -0,4 C 94 % 1010,8 hPa 0,0 l/m 7,7 km/h (2 Bft) S 170 0 min 0 W/m -1,2 C -1,8 C 14,5 km/h (3 Bft)
13.02.2018 06:30 -0,5 C 93 % 1010,7 hPa 0,0 l/m 8,1 km/h (2 Bft) S 179 0 min 0 W/m -1,5 C -2,3 C 14,5 km/h (3 Bft)
13.02.2018 06:33 -0,5 C 93 % 1010,7 hPa 0,0 l/m 7,2 km/h (2 Bft) S 170 0 min 0 W/m -1,5 C -1,3 C 14,5 km/h (3 Bft)
13.02.2018 06:36 -0,5 C 93 % 1010,8 hPa 0,0 l/m 8,8 km/h (2 Bft) S 179 0 min 0 W/m -1,5 C -2,9 C 14,5 km/h (3 Bft)
13.02.2018 06:39 -0,6 C 93 % 1010,8 hPa 0,0 l/m 9,3 km/h (2 Bft) S 171 0 min 0 W/m -1,6 C -3,5 C 12,9 km/h (3 Bft)
13.02.2018 06:42 -0,6 C 93 % 1010,7 hPa 0,0 l/m 7,9 km/h (2 Bft) S 177 0 min 0 W/m -1,6 C -2,2 C 12,9 km/h (3 Bft)
13.02.2018 06:45 -0,6 C 93 % 1010,8 hPa 0,0 l/m 8,9 km/h (2 Bft) S-SO 167 0 min 0 W/m -1,6 C -3,1 C 14,5 km/h (3 Bft)
13.02.2018 06:48 -0,6 C 93 % 1010,7 hPa 0,0 l/m 9,3 km/h (2 Bft) S 184 0 min 0 W/m -1,6 C -3,5 C 14,5 km/h (3 Bft)
13.02.2018 06:51 -0,6 C 93 % 1010,7 hPa 0,0 l/m 8,6 km/h (2 Bft) SW 215 0 min 0 W/m -1,6 C -2,9 C 16,1 km/h (3 Bft)
13.02.2018 06:54 -0,6 C 93 % 1010,7 hPa 0,0 l/m 9,4 km/h (2 Bft) S-SW 198 0 min 0 W/m -1,6 C -3,6 C 16,1 km/h (3 Bft)
13.02.2018 06:57 -0,6 C 93 % 1010,7 hPa 0,0 l/m 8,2 km/h (2 Bft) S 188 0 min 0 W/m -1,6 C -2,5 C 14,5 km/h (3 Bft)
13.02.2018 07:00 -0,6 C 93 % 1010,7 hPa 0,0 l/m 10,1 km/h (2 Bft) SW 219 0 min 0 W/m -1,6 C -4,2 C 22,5 km/h (4 Bft)
13.02.2018 07:03 -0,6 C 93 % 1010,8 hPa 0,0 l/m 7,9 km/h (2 Bft) SW 219 0 min 0 W/m -1,6 C -2,2 C 12,9 km/h (3 Bft)
13.02.2018 07:06 -0,6 C 93 % 1010,8 hPa 0,0 l/m 8,6 km/h (2 Bft) S 180 0 min 0 W/m -1,6 C -2,9 C 16,1 km/h (3 Bft)
13.02.2018 07:09 -0,6 C 93 % 1010,8 hPa 0,0 l/m 7,8 km/h (2 Bft) S-SW 212 0 min 0 W/m -1,6 C -2,1 C 12,9 km/h (3 Bft)
13.02.2018 07:12 -0,6 C 93 % 1010,8 hPa 0,0 l/m 9,3 km/h (2 Bft) S-SW 198 0 min 0 W/m -1,6 C -3,5 C 14,5 km/h (3 Bft)
13.02.2018 07:15 -0,7 C 93 % 1010,8 hPa 0,0 l/m 8,0 km/h (2 Bft) S-SW 195 0 min 0 W/m -1,7 C -2,4 C 11,3 km/h (2 Bft)
13.02.2018 07:18 -0,6 C 94 % 1010,8 hPa 0,0 l/m 9,0 km/h (2 Bft) S-SW 207 0 min 0 W/m -1,4 C -3,2 C 16,1 km/h (3 Bft)
13.02.2018 07:21 -0,6 C 94 % 1010,8 hPa 0,0 l/m 8,8 km/h (2 Bft) SW 234 0 min 0 W/m -1,4 C -3,0 C 12,9 km/h (3 Bft)
13.02.2018 07:24 -0,6 C 94 % 1010,9 hPa 0,0 l/m 8,4 km/h (2 Bft) SW 227 0 min 0 W/m -1,4 C -2,7 C 12,9 km/h (3 Bft)
13.02.2018 07:27 -0,6 C 94 % 1010,8 hPa 0,0 l/m 8,7 km/h (2 Bft) S 184 0 min 0 W/m -1,4 C -3,0 C 14,5 km/h (3 Bft)
13.02.2018 07:30 -0,6 C 94 % 1010,8 hPa 0,0 l/m 9,0 km/h (2 Bft) S 188 0 min 0 W/m -1,4 C -3,2 C 17,7 km/h (3 Bft)
13.02.2018 07:33 -0,6 C 94 % 1010,8 hPa 0,0 l/m 7,5 km/h (2 Bft) S 180 0 min 0 W/m -1,4 C -1,8 C 14,5 km/h (3 Bft)
13.02.2018 07:36 -0,6 C 93 % 1010,8 hPa 0,0 l/m 10,2 km/h (2 Bft) S 183 0 min 0 W/m -1,6 C -4,3 C 19,3 km/h (3 Bft)
13.02.2018 07:39 -0,6 C 93 % 1010,8 hPa 0,0 l/m 9,3 km/h (2 Bft) S 182 0 min 0 W/m -1,6 C -3,5 C 19,3 km/h (3 Bft)
13.02.2018 07:42 -0,6 C 93 % 1010,8 hPa 0,0 l/m 8,4 km/h (2 Bft) S-SW 211 0 min 0 W/m -1,6 C -2,7 C 17,7 km/h (3 Bft)
13.02.2018 07:45 -0,6 C 93 % 1010,8 hPa 0,0 l/m 8,5 km/h (2 Bft) S-SW 206 0 min 0 W/m -1,6 C -2,8 C 14,5 km/h (3 Bft)
13.02.2018 07:48 -0,6 C 93 % 1010,8 hPa 0,0 l/m 8,6 km/h (2 Bft) SW 234 0 min 0 W/m -1,6 C -2,9 C 16,1 km/h (3 Bft)
13.02.2018 07:51 -0,6 C 93 % 1010,8 hPa 0,0 l/m 8,5 km/h (2 Bft) S-SW 192 0 min 0 W/m -1,6 C -2,8 C 12,9 km/h (3 Bft)
13.02.2018 07:54 -0,6 C 93 % 1010,7 hPa 0,0 l/m 10,9 km/h (2 Bft) S-SW 211 0 min 0 W/m -1,6 C -4,9 C 19,3 km/h (3 Bft)
13.02.2018 07:57 -0,6 C 93 % 1010,7 hPa 0,0 l/m 10,3 km/h (2 Bft) S-SW 201 0 min 0 W/m -1,6 C -4,4 C 16,1 km/h (3 Bft)
13.02.2018 08:00 -0,6 C 93 % 1010,8 hPa 0,0 l/m 10,0 km/h (2 Bft) S 191 0 min 5 W/m -1,6 C -4,1 C 17,7 km/h (3 Bft)
13.02.2018 08:03 -0,6 C 93 % 1010,8 hPa 0,0 l/m 10,3 km/h (2 Bft) SW 218 0 min 5 W/m -1,6 C -4,4 C 20,9 km/h (4 Bft)
13.02.2018 08:06 -0,5 C 93 % 1010,8 hPa 0,0 l/m 8,7 km/h (2 Bft) S-SW 208 0 min 7 W/m -1,5 C -2,8 C 16,1 km/h (3 Bft)
13.02.2018 08:09 -0,5 C 93 % 1010,8 hPa 0,0 l/m 9,0 km/h (2 Bft) S 177 0 min 7 W/m -1,5 C -3,1 C 17,7 km/h (3 Bft)
13.02.2018 08:12 -0,5 C 93 % 1010,9 hPa 0,0 l/m 10,6 km/h (2 Bft) S 169 0 min 9 W/m -1,5 C -4,5 C 17,7 km/h (3 Bft)
13.02.2018 08:15 -0,5 C 93 % 1010,8 hPa 0,0 l/m 11,0 km/h (2 Bft) S-SO 166 0 min 9 W/m -1,5 C -4,8 C 17,7 km/h (3 Bft)
13.02.2018 08:18 -0,4 C 93 % 1010,9 hPa 0,0 l/m 11,0 km/h (2 Bft) S 169 0 min 11 W/m -1,4 C -4,7 C 17,7 km/h (3 Bft)
13.02.2018 08:21 -0,5 C 93 % 1010,9 hPa 0,0 l/m 11,1 km/h (2 Bft) S 189 0 min 12 W/m -1,5 C -4,9 C 17,7 km/h (3 Bft)
13.02.2018 08:24 -0,4 C 93 % 1010,9 hPa 0,0 l/m 11,0 km/h (2 Bft) S 170 0 min 12 W/m -1,4 C -4,7 C 17,7 km/h (3 Bft)
13.02.2018 08:27 -0,4 C 93 % 1011,0 hPa 0,0 l/m 10,4 km/h (2 Bft) S 177 0 min 14 W/m -1,4 C -4,2 C 16,1 km/h (3 Bft)
13.02.2018 08:30 -0,4 C 93 % 1011,0 hPa 0,0 l/m 10,2 km/h (2 Bft) S-SO 168 0 min 14 W/m -1,4 C -4,1 C 16,1 km/h (3 Bft)
13.02.2018 08:33 -0,4 C 93 % 1011,1 hPa 0,0 l/m 11,0 km/h (2 Bft) S 186 0 min 16 W/m -1,4 C -4,7 C 17,7 km/h (3 Bft)
13.02.2018 08:36 -0,4 C 93 % 1011,0 hPa 0,0 l/m 9,9 km/h (2 Bft) S-SO 168 0 min 16 W/m -1,4 C -3,8 C 16,1 km/h (3 Bft)
13.02.2018 08:39 -0,4 C 93 % 1011,0 hPa 0,0 l/m 11,6 km/h (2 Bft) S 191 0 min 18 W/m -1,4 C -5,2 C 17,7 km/h (3 Bft)
13.02.2018 08:42 -0,4 C 93 % 1011,0 hPa 0,0 l/m 11,0 km/h (2 Bft) S 171 0 min 18 W/m -1,4 C -4,7 C 19,3 km/h (3 Bft)
13.02.2018 08:45 -0,3 C 93 % 1011,1 hPa 0,0 l/m 10,7 km/h (2 Bft) S-SO 157 0 min 19 W/m -1,3 C -4,4 C 20,9 km/h (4 Bft)
13.02.2018 08:48 -0,3 C 93 % 1011,1 hPa 0,0 l/m 10,1 km/h (2 Bft) S 187 0 min 19 W/m -1,3 C -3,9 C 19,3 km/h (3 Bft)
13.02.2018 08:51 -0,3 C 93 % 1011,2 hPa 0,0 l/m 10,7 km/h (2 Bft) S-SO 161 0 min 21 W/m -1,3 C -4,4 C 19,3 km/h (3 Bft)
13.02.2018 08:54 -0,3 C 93 % 1011,1 hPa 0,0 l/m 9,9 km/h (2 Bft) S 183 0 min 21 W/m -1,3 C -3,7 C 17,7 km/h (3 Bft)
13.02.2018 08:57 -0,2 C 93 % 1011,2 hPa 0,0 l/m 10,3 km/h (2 Bft) S 189 0 min 23 W/m -1,2 C -3,9 C 19,3 km/h (3 Bft)
13.02.2018 09:00 -0,2 C 93 % 1011,2 hPa 0,0 l/m 11,0 km/h (2 Bft) S-SO 151 0 min 23 W/m -1,2 C -4,5 C 17,7 km/h (3 Bft)
13.02.2018 09:03 -0,2 C 93 % 1011,2 hPa 0,0 l/m 11,3 km/h (2 Bft) S-SO 157 0 min 23 W/m -1,2 C -4,7 C 20,9 km/h (4 Bft)
13.02.2018 09:06 -0,2 C 93 % 1011,1 hPa 0,0 l/m 11,7 km/h (2 Bft) S-SW 196 0 min 25 W/m -1,2 C -5,0 C 19,3 km/h (3 Bft)
13.02.2018 09:09 -0,1 C 93 % 1011,2 hPa 0,0 l/m 12,4 km/h (2 Bft) S-SO 165 0 min 25 W/m -1,1 C -5,4 C 19,3 km/h (3 Bft)
13.02.2018 09:12 -0,1 C 93 % 1011,2 hPa 0,0 l/m 11,5 km/h (2 Bft) S-SO 157 0 min 26 W/m -1,1 C -4,7 C 24,1 km/h (4 Bft)
13.02.2018 09:15 -0,1 C 93 % 1011,2 hPa 0,0 l/m 10,7 km/h (2 Bft) S-SO 167 0 min 26 W/m -1,1 C -4,1 C 20,9 km/h (4 Bft)
13.02.2018 09:18 0,0 C 93 % 1011,3 hPa 0,0 l/m 9,4 km/h (2 Bft) S 171 0 min 28 W/m -1,0 C -2,9 C 17,7 km/h (3 Bft)
13.02.2018 09:21 0,0 C 93 % 1011,2 hPa 0,0 l/m 10,0 km/h (2 Bft) S 177 0 min 28 W/m -1,0 C -3,5 C 17,7 km/h (3 Bft)
13.02.2018 09:24 0,1 C 93 % 1011,4 hPa 0,0 l/m 12,1 km/h (2 Bft) SW 221 0 min 28 W/m -0,9 C -5,0 C 20,9 km/h (4 Bft)
13.02.2018 09:27 0,1 C 93 % 1011,4 hPa 0,0 l/m 10,2 km/h (2 Bft) S 177 0 min 30 W/m -0,9 C -3,5 C 19,3 km/h (3 Bft)
13.02.2018 09:30 0,1 C 93 % 1011,3 hPa 0,0 l/m 12,0 km/h (2 Bft) S-SO 167 0 min 32 W/m -0,9 C -4,9 C 22,5 km/h (4 Bft)
13.02.2018 09:33 0,2 C 92 % 1011,3 hPa 0,0 l/m 9,6 km/h (2 Bft) S 188 0 min 32 W/m -0,9 C -2,9 C 17,7 km/h (3 Bft)
13.02.2018 09:36 0,2 C 93 % 1011,3 hPa 0,0 l/m 10,6 km/h (2 Bft) S 188 0 min 33 W/m -0,8 C -3,7 C 17,7 km/h (3 Bft)
13.02.2018 09:39 0,2 C 92 % 1011,3 hPa 0,0 l/m 10,1 km/h (2 Bft) S 181 0 min 33 W/m -0,9 C -3,3 C 16,1 km/h (3 Bft)
13.02.2018 09:42 0,3 C 92 % 1011,3 hPa 0,0 l/m 10,4 km/h (2 Bft) S-SW 200 0 min 33 W/m -0,8 C -3,4 C 20,9 km/h (4 Bft)
13.02.2018 09:45 0,3 C 92 % 1011,3 hPa 0,0 l/m 10,5 km/h (2 Bft) SW 232 0 min 33 W/m -0,8 C -3,5 C 17,7 km/h (3 Bft)
13.02.2018 09:48 0,4 C 92 % 1011,3 hPa 0,0 l/m 12,0 km/h (2 Bft) S 182 0 min 35 W/m -0,7 C -4,5 C 20,9 km/h (4 Bft)
13.02.2018 09:51 0,4 C 92 % 1011,4 hPa 0,0 l/m 11,3 km/h (2 Bft) S 188 0 min 37 W/m -0,7 C -4,0 C 20,9 km/h (4 Bft)
13.02.2018 09:54 0,5 C 92 % 1011,4 hPa 0,0 l/m 12,1 km/h (2 Bft) S 177 0 min 37 W/m -0,6 C -4,5 C 19,3 km/h (3 Bft)
13.02.2018 09:57 0,6 C 92 % 1011,4 hPa 0,0 l/m 9,9 km/h (2 Bft) S-SW 196 0 min 37 W/m -0,5 C -2,7 C 19,3 km/h (3 Bft)
13.02.2018 10:00 0,6 C 92 % 1011,4 hPa 0,0 l/m 12,3 km/h (2 Bft) S-SW 192 0 min 39 W/m -0,5 C -4,5 C 19,3 km/h (3 Bft)
13.02.2018 10:03 0,7 C 92 % 1011,4 hPa 0,0 l/m 11,1 km/h (2 Bft) S-SW 211 0 min 39 W/m -0,4 C -3,5 C 17,7 km/h (3 Bft)
13.02.2018 10:06 0,7 C 92 % 1011,4 hPa 0,0 l/m 11,2 km/h (2 Bft) S 169 0 min 39 W/m -0,4 C -3,6 C 20,9 km/h (4 Bft)
13.02.2018 10:09 0,7 C 92 % 1011,4 hPa 0,0 l/m 12,7 km/h (3 Bft) S 187 0 min 40 W/m -0,4 C -4,7 C 20,9 km/h (4 Bft)
13.02.2018 10:12 0,8 C 91 % 1011,4 hPa 0,0 l/m 12,9 km/h (3 Bft) S 173 0 min 40 W/m -0,5 C -4,7 C 20,9 km/h (4 Bft)
13.02.2018 10:15 0,8 C 91 % 1011,3 hPa 0,0 l/m 11,7 km/h (2 Bft) S 177 0 min 42 W/m -0,5 C -3,9 C 19,3 km/h (3 Bft)
13.02.2018 10:18 0,9 C 91 % 1011,4 hPa 0,0 l/m 12,5 km/h (2 Bft) SW 215 0 min 42 W/m -0,4 C -4,3 C 22,5 km/h (4 Bft)
13.02.2018 10:21 0,9 C 91 % 1011,3 hPa 0,0 l/m 11,2 km/h (2 Bft) S-SW 193 0 min 42 W/m -0,4 C -3,4 C 19,3 km/h (3 Bft)
13.02.2018 10:24 1,0 C 91 % 1011,2 hPa 0,0 l/m 10,0 km/h (2 Bft) S 181 0 min 44 W/m -0,3 C -2,3 C 16,1 km/h (3 Bft)
13.02.2018 10:27 1,1 C 91 % 1011,3 hPa 0,0 l/m 12,2 km/h (2 Bft) SW 218 0 min 46 W/m -0,2 C -3,9 C 19,3 km/h (3 Bft)
13.02.2018 10:30 1,1 C 91 % 1011,2 hPa 0,0 l/m 12,3 km/h (2 Bft) S-SO 167 0 min 46 W/m -0,2 C -3,9 C 19,3 km/h (3 Bft)
13.02.2018 10:33 1,2 C 91 % 1011,2 hPa 0,0 l/m 10,9 km/h (2 Bft) S 189 0 min 46 W/m -0,1 C -2,8 C 17,7 km/h (3 Bft)
13.02.2018 10:36 1,2 C 91 % 1011,2 hPa 0,0 l/m 10,9 km/h (2 Bft) S 180 0 min 47 W/m -0,1 C -2,8 C 17,7 km/h (3 Bft)
13.02.2018 10:39 1,3 C 91 % 1011,2 hPa 0,0 l/m 14,4 km/h (3 Bft) S 179 0 min 47 W/m -0,0 C -5,1 C 22,5 km/h (4 Bft)
13.02.2018 10:42 1,3 C 90 % 1011,2 hPa 0,0 l/m 9,0 km/h (2 Bft) S 172 0 min 49 W/m -0,2 C -1,2 C 16,1 km/h (3 Bft)
13.02.2018 10:45 1,4 C 90 % 1011,2 hPa 0,0 l/m 10,7 km/h (2 Bft) S-SW 197 0 min 51 W/m -0,1 C -2,4 C 17,7 km/h (3 Bft)
13.02.2018 10:48 1,5 C 90 % 1011,1 hPa 0,0 l/m 11,3 km/h (2 Bft) S-SO 162 0 min 49 W/m 0,0 C -2,8 C 19,3 km/h (3 Bft)
13.02.2018 10:51 1,6 C 90 % 1011,1 hPa 0,0 l/m 12,8 km/h (3 Bft) S-SO 166 0 min 56 W/m 0,1 C -3,7 C 19,3 km/h (3 Bft)
13.02.2018 10:54 1,6 C 90 % 1011,1 hPa 0,0 l/m 10,4 km/h (2 Bft) S 179 0 min 79 W/m 0,1 C -2,0 C 19,3 km/h (3 Bft)
13.02.2018 10:57 1,7 C 90 % 1011,1 hPa 0,0 l/m 9,6 km/h (2 Bft) S 186 0 min 90 W/m 0,2 C -1,3 C 16,1 km/h (3 Bft)
13.02.2018 11:00 1,8 C 90 % 1011,1 hPa 0,0 l/m 11,1 km/h (2 Bft) S-SW 195 0 min 62 W/m 0,3 C -2,3 C 19,3 km/h (3 Bft)
13.02.2018 11:03 1,8 C 89 % 1011,1 hPa 0,0 l/m 12,2 km/h (2 Bft) S 179 0 min 56 W/m 0,2 C -3,1 C 19,3 km/h (3 Bft)
13.02.2018 11:06 1,9 C 89 % 1011,1 hPa 0,0 l/m 11,0 km/h (2 Bft) S 179 0 min 63 W/m 0,3 C -2,1 C 22,5 km/h (4 Bft)
13.02.2018 11:09 2,0 C 89 % 1011,1 hPa 0,0 l/m 11,2 km/h (2 Bft) S 175 0 min 83 W/m 0,4 C -2,1 C 19,3 km/h (3 Bft)
13.02.2018 11:12 2,2 C 89 % 1011,1 hPa 0,0 l/m 10,1 km/h (2 Bft) S 174 0 min 185 W/m 0,6 C -1,1 C 20,9 km/h (4 Bft)
13.02.2018 11:15 2,2 C 89 % 1011,1 hPa 0,0 l/m 10,9 km/h (2 Bft) S-SW 208 3 min 230 W/m 0,6 C -1,7 C 17,7 km/h (3 Bft)
13.02.2018 11:18 2,3 C 88 % 1011,1 hPa 0,0 l/m 9,5 km/h (2 Bft) S 174 3 min 313 W/m 0,5 C -0,5 C 17,7 km/h (3 Bft)
13.02.2018 11:21 2,4 C 88 % 1011,0 hPa 0,0 l/m 12,2 km/h (2 Bft) S-SO 161 3 min 330 W/m 0,6 C -2,4 C 19,3 km/h (3 Bft)
13.02.2018 11:24 2,5 C 88 % 1011,0 hPa 0,0 l/m 11,7 km/h (2 Bft) S 175 3 min 200 W/m 0,7 C -1,9 C 17,7 km/h (3 Bft)
13.02.2018 11:27 2,5 C 87 % 1011,0 hPa 0,0 l/m 9,0 km/h (2 Bft) S 172 3 min 330 W/m 0,6 C 0,1 C 14,5 km/h (3 Bft)
13.02.2018 11:30 2,6 C 88 % 1011,0 hPa 0,0 l/m 10,4 km/h (2 Bft) S-SO 161 3 min 287 W/m 0,8 C -0,9 C 19,3 km/h (3 Bft)
13.02.2018 11:33 2,7 C 87 % 1011,0 hPa 0,0 l/m 9,9 km/h (2 Bft) S 180 3 min 281 W/m 0,8 C -0,4 C 17,7 km/h (3 Bft)
13.02.2018 11:36 2,8 C 87 % 1011,0 hPa 0,0 l/m 13,6 km/h (3 Bft) S 177 3 min 288 W/m 0,9 C -2,8 C 20,9 km/h (4 Bft)
13.02.2018 11:39 2,9 C 87 % 1011,0 hPa 0,0 l/m 9,3 km/h (2 Bft) S 182 3 min 292 W/m 1,0 C 0,3 C 17,7 km/h (3 Bft)
13.02.2018 11:42 3,1 C 87 % 1011,0 hPa 0,0 l/m 12,3 km/h (2 Bft) S 171 3 min 304 W/m 1,2 C -1,6 C 22,5 km/h (4 Bft)
13.02.2018 11:45 3,1 C 86 % 1011,0 hPa 0,0 l/m 13,5 km/h (3 Bft) S-SO 163 3 min 309 W/m 1,0 C -2,4 C 20,9 km/h (4 Bft)
13.02.2018 11:48 3,2 C 86 % 1011,0 hPa 0,0 l/m 11,1 km/h (2 Bft) S-SO 160 3 min 316 W/m 1,1 C -0,7 C 17,7 km/h (3 Bft)
13.02.2018 11:51 3,2 C 86 % 1011,0 hPa 0,0 l/m 9,6 km/h (2 Bft) S 180 3 min 325 W/m 1,1 C 0,4 C 16,1 km/h (3 Bft)
13.02.2018 11:54 3,3 C 85 % 1011,0 hPa 0,0 l/m 11,6 km/h (2 Bft) S 171 3 min 332 W/m 1,0 C -0,9 C 19,3 km/h (3 Bft)
13.02.2018 11:57 3,4 C 85 % 1011,0 hPa 0,0 l/m 12,9 km/h (3 Bft) S-SO 165 3 min 341 W/m 1,1 C -1,7 C 19,3 km/h (3 Bft)
13.02.2018 12:00 3,4 C 85 % 1010,9 hPa 0,0 l/m 11,8 km/h (2 Bft) S-SO 166 3 min 350 W/m 1,1 C -1,0 C 19,3 km/h (3 Bft)
13.02.2018 12:03 3,4 C 85 % 1010,9 hPa 0,0 l/m 10,8 km/h (2 Bft) S 184 3 min 353 W/m 1,1 C -0,3 C 20,9 km/h (4 Bft)
13.02.2018 12:06 3,6 C 85 % 1010,9 hPa 0,0 l/m 11,1 km/h (2 Bft) S-SO 165 3 min 359 W/m 1,3 C -0,3 C 17,7 km/h (3 Bft)
13.02.2018 12:09 3,6 C 85 % 1010,9 hPa 0,0 l/m 12,9 km/h (3 Bft) S 169 3 min 359 W/m 1,3 C -1,4 C 19,3 km/h (3 Bft)
13.02.2018 12:12 3,6 C 85 % 1010,9 hPa 0,0 l/m 12,9 km/h (3 Bft) S-SO 167 3 min 359 W/m 1,3 C -1,4 C 20,9 km/h (4 Bft)
13.02.2018 12:15 3,7 C 84 % 1010,8 hPa 0,0 l/m 12,3 km/h (2 Bft) S 169 3 min 360 W/m 1,3 C -0,9 C 22,5 km/h (4 Bft)
13.02.2018 12:18 3,8 C 84 % 1010,8 hPa 0,0 l/m 9,9 km/h (2 Bft) S 178 3 min 366 W/m 1,4 C 0,8 C 17,7 km/h (3 Bft)
13.02.2018 12:21 3,9 C 83 % 1010,8 hPa 0,0 l/m 11,8 km/h (2 Bft) S 183 3 min 362 W/m 1,3 C -0,4 C 17,7 km/h (3 Bft)
13.02.2018 12:24 4,1 C 84 % 1010,8 hPa 0,0 l/m 10,6 km/h (2 Bft) S 181 3 min 364 W/m 1,6 C 0,7 C 17,7 km/h (3 Bft)
13.02.2018 12:27 4,1 C 83 % 1010,8 hPa 0,0 l/m 11,7 km/h (2 Bft) S-SO 167 3 min 366 W/m 1,5 C -0,1 C 19,3 km/h (3 Bft)
13.02.2018 12:30 4,2 C 83 % 1010,8 hPa 0,0 l/m 9,9 km/h (2 Bft) S-SO 159 3 min 367 W/m 1,6 C 1,3 C 17,7 km/h (3 Bft)
13.02.2018 12:33 4,2 C 82 % 1010,8 hPa 0,0 l/m 10,1 km/h (2 Bft) S 189 3 min 367 W/m 1,4 C 1,1 C 19,3 km/h (3 Bft)
13.02.2018 12:36 4,3 C 82 % 1010,7 hPa 0,0 l/m 10,6 km/h (2 Bft) S 169 3 min 369 W/m 1,5 C 0,9 C 17,7 km/h (3 Bft)
13.02.2018 12:39 4,3 C 82 % 1010,8 hPa 0,0 l/m 12,6 km/h (3 Bft) S 169 3 min 367 W/m 1,5 C -0,4 C 20,9 km/h (4 Bft)
13.02.2018 12:42 4,3 C 82 % 1010,7 hPa 0,0 l/m 9,0 km/h (2 Bft) SW 227 3 min 369 W/m 1,5 C 2,1 C 14,5 km/h (3 Bft)
13.02.2018 12:45 4,4 C 81 % 1010,8 hPa 0,0 l/m 8,7 km/h (2 Bft) S 190 3 min 369 W/m 1,4 C 2,4 C 14,5 km/h (3 Bft)
13.02.2018 12:48 4,4 C 80 % 1010,8 hPa 0,0 l/m 13,3 km/h (3 Bft) S 185 3 min 367 W/m 1,3 C -0,7 C 22,5 km/h (4 Bft)
13.02.2018 12:51 4,6 C 81 % 1010,8 hPa 0,0 l/m 12,1 km/h (2 Bft) S-SO 161 3 min 369 W/m 1,6 C 0,2 C 22,5 km/h (4 Bft)
13.02.2018 12:54 4,6 C 80 % 1010,7 hPa 0,0 l/m 14,1 km/h (3 Bft) S 178 3 min 367 W/m 1,5 C -0,9 C 22,5 km/h (4 Bft)
13.02.2018 12:57 4,7 C 80 % 1010,7 hPa 0,0 l/m 10,3 km/h (2 Bft) S 186 3 min 367 W/m 1,6 C 1,5 C 17,7 km/h (3 Bft)
13.02.2018 13:00 4,8 C 80 % 1010,8 hPa 0,0 l/m 12,6 km/h (3 Bft) S-SO 166 3 min 367 W/m 1,6 C 0,2 C 20,9 km/h (4 Bft)
13.02.2018 13:03 4,7 C 80 % 1010,7 hPa 0,0 l/m 13,7 km/h (3 Bft) SW 233 3 min 367 W/m 1,6 C -0,6 C 22,5 km/h (4 Bft)
13.02.2018 13:06 4,7 C 80 % 1010,7 hPa 0,0 l/m 11,8 km/h (2 Bft) S-SO 159 3 min 366 W/m 1,6 C 0,5 C 20,9 km/h (4 Bft)
13.02.2018 13:09 4,8 C 80 % 1010,7 hPa 0,0 l/m 11,3 km/h (2 Bft) S-SW 192 3 min 366 W/m 1,6 C 1,0 C 20,9 km/h (4 Bft)
13.02.2018 13:12 4,8 C 80 % 1010,6 hPa 0,0 l/m 11,5 km/h (2 Bft) S 186 3 min 366 W/m 1,6 C 0,8 C 20,9 km/h (4 Bft)
13.02.2018 13:15 4,9 C 79 % 1010,7 hPa 0,0 l/m 14,0 km/h (3 Bft) S-SO 168 3 min 366 W/m 1,6 C -0,5 C 22,5 km/h (4 Bft)
13.02.2018 13:18 5,0 C 79 % 1010,6 hPa 0,0 l/m 12,5 km/h (2 Bft) W 269 3 min 366 W/m 1,7 C 0,5 C 24,1 km/h (4 Bft)
13.02.2018 13:21 5,2 C 79 % 1010,7 hPa 0,0 l/m 10,1 km/h (2 Bft) S 171 3 min 362 W/m 1,9 C 2,2 C 19,3 km/h (3 Bft)
13.02.2018 13:24 5,2 C 79 % 1010,6 hPa 0,0 l/m 11,5 km/h (2 Bft) S-SO 165 3 min 346 W/m 1,9 C 1,3 C 17,7 km/h (3 Bft)
13.02.2018 13:27 5,2 C 78 % 1010,6 hPa 0,0 l/m 9,9 km/h (2 Bft) S 182 3 min 315 W/m 1,7 C 2,4 C 17,7 km/h (3 Bft)
13.02.2018 13:30 5,2 C 78 % 1010,6 hPa 0,0 l/m 12,5 km/h (2 Bft) S 177 3 min 292 W/m 1,7 C 0,7 C 22,5 km/h (4 Bft)
13.02.2018 13:33 5,2 C 78 % 1010,6 hPa 0,0 l/m 11,3 km/h (2 Bft) S 175 3 min 281 W/m 1,7 C 1,4 C 17,7 km/h (3 Bft)
13.02.2018 13:36 5,4 C 78 % 1010,5 hPa 0,0 l/m 9,2 km/h (2 Bft) S-SW 192 3 min 292 W/m 1,9 C 3,1 C 17,7 km/h (3 Bft)
13.02.2018 13:39 5,5 C 78 % 1010,4 hPa 0,0 l/m 9,6 km/h (2 Bft) S 190 3 min 308 W/m 2,0 C 2,9 C 14,5 km/h (3 Bft)
13.02.2018 13:42 5,6 C 77 % 1010,4 hPa 0,0 l/m 11,0 km/h (2 Bft) S-SW 199 3 min 313 W/m 1,9 C 2,1 C 22,5 km/h (4 Bft)
13.02.2018 13:45 5,6 C 76 % 1010,5 hPa 0,0 l/m 9,7 km/h (2 Bft) S-SO 168 3 min 297 W/m 1,7 C 2,9 C 17,7 km/h (3 Bft)
13.02.2018 13:48 5,7 C 77 % 1010,5 hPa 0,0 l/m 9,0 km/h (2 Bft) S 171 3 min 281 W/m 2,0 C 3,6 C 16,1 km/h (3 Bft)
13.02.2018 13:51 5,6 C 76 % 1010,5 hPa 0,0 l/m 11,9 km/h (2 Bft) O-SO 123 3 min 250 W/m 1,7 C 1,5 C 22,5 km/h (4 Bft)
13.02.2018 13:54 5,5 C 77 % 1010,4 hPa 0,0 l/m 10,9 km/h (2 Bft) O-SO 117 3 min 223 W/m 1,8 C 2,0 C 19,3 km/h (3 Bft)
13.02.2018 13:57 5,7 C 77 % 1010,4 hPa 0,0 l/m 8,5 km/h (2 Bft) S 174 3 min 209 W/m 2,0 C 3,9 C 14,5 km/h (3 Bft)
13.02.2018 14:00 5,7 C 76 % 1010,4 hPa 0,0 l/m 9,4 km/h (2 Bft) SO 132 3 min 213 W/m 1,8 C 3,3 C 19,3 km/h (3 Bft)
13.02.2018 14:03 5,6 C 76 % 1010,3 hPa 0,0 l/m 12,2 km/h (2 Bft) S 183 3 min 243 W/m 1,7 C 1,3 C 20,9 km/h (4 Bft)
13.02.2018 14:06 5,6 C 76 % 1010,3 hPa 0,0 l/m 12,0 km/h (2 Bft) S 189 3 min 272 W/m 1,7 C 1,4 C 19,3 km/h (3 Bft)
13.02.2018 14:09 5,6 C 75 % 1010,3 hPa 0,0 l/m 11,1 km/h (2 Bft) S 169 3 min 295 W/m 1,5 C 2,0 C 17,7 km/h (3 Bft)
13.02.2018 14:12 5,7 C 76 % 1010,3 hPa 0,0 l/m 9,7 km/h (2 Bft) S-SO 164 3 min 295 W/m 1,8 C 3,1 C 16,1 km/h (3 Bft)
13.02.2018 14:15 5,7 C 75 % 1010,3 hPa 0,0 l/m 10,3 km/h (2 Bft) S-SO 167 3 min 306 W/m 1,6 C 2,6 C 16,1 km/h (3 Bft)
13.02.2018 14:18 5,7 C 75 % 1010,3 hPa 0,0 l/m 10,7 km/h (2 Bft) S-SW 196 3 min 313 W/m 1,6 C 2,4 C 17,7 km/h (3 Bft)
13.02.2018 14:21 5,7 C 75 % 1010,3 hPa 0,0 l/m 8,9 km/h (2 Bft) S 175 3 min 309 W/m 1,6 C 3,6 C 16,1 km/h (3 Bft)
13.02.2018 14:24 5,7 C 75 % 1010,3 hPa 0,0 l/m 9,8 km/h (2 Bft) W-SW 249 3 min 309 W/m 1,6 C 3,0 C 19,3 km/h (3 Bft)
13.02.2018 14:27 5,7 C 75 % 1010,3 hPa 0,0 l/m 9,6 km/h (2 Bft) S-SO 161 3 min 306 W/m 1,6 C 3,1 C 20,9 km/h (4 Bft)
13.02.2018 14:30 5,6 C 75 % 1010,2 hPa 0,0 l/m 12,1 km/h (2 Bft) S-SO 167 3 min 302 W/m 1,5 C 1,4 C 16,1 km/h (3 Bft)
13.02.2018 14:33 5,6 C 75 % 1010,2 hPa 0,0 l/m 10,4 km/h (2 Bft) S 185 3 min 299 W/m 1,5 C 2,5 C 17,7 km/h (3 Bft)
13.02.2018 14:36 5,6 C 75 % 1010,2 hPa 0,0 l/m 10,7 km/h (2 Bft) SW 236 3 min 295 W/m 1,5 C 2,3 C 19,3 km/h (3 Bft)
13.02.2018 14:39 5,6 C 75 % 1010,1 hPa 0,0 l/m 12,2 km/h (2 Bft) SW 236 3 min 292 W/m 1,5 C 1,3 C 19,3 km/h (3 Bft)
13.02.2018 14:42 5,5 C 74 % 1010,1 hPa 0,0 l/m 12,3 km/h (2 Bft) S 186 3 min 288 W/m 1,2 C 1,2 C 24,1 km/h (4 Bft)
13.02.2018 14:45 5,5 C 74 % 1010,1 hPa 0,0 l/m 11,8 km/h (2 Bft) S 183 3 min 272 W/m 1,2 C 1,5 C 22,5 km/h (4 Bft)
13.02.2018 14:48 5,5 C 74 % 1010,0 hPa 0,0 l/m 9,8 km/h (2 Bft) S 179 3 min 260 W/m 1,2 C 2,8 C 14,5 km/h (3 Bft)
13.02.2018 14:51 5,6 C 75 % 1010,0 hPa 0,0 l/m 12,6 km/h (3 Bft) S 173 3 min 202 W/m 1,5 C 1,1 C 20,9 km/h (4 Bft)
13.02.2018 14:54 5,4 C 74 % 1010,0 hPa 0,0 l/m 11,4 km/h (2 Bft) S 178 3 min 216 W/m 1,1 C 1,6 C 17,7 km/h (3 Bft)
13.02.2018 14:57 5,4 C 74 % 1010,0 hPa 0,0 l/m 13,6 km/h (3 Bft) S-SO 164 3 min 207 W/m 1,1 C 0,3 C 22,5 km/h (4 Bft)
13.02.2018 15:00 5,4 C 74 % 1010,1 hPa 0,0 l/m 12,0 km/h (2 Bft) S 174 3 min 188 W/m 1,1 C 1,2 C 20,9 km/h (4 Bft)
13.02.2018 15:03 5,4 C 74 % 1010,1 hPa 0,0 l/m 9,6 km/h (2 Bft) S 174 3 min 193 W/m 1,1 C 2,8 C 16,1 km/h (3 Bft)
13.02.2018 15:06 5,4 C 74 % 1010,0 hPa 0,0 l/m 12,8 km/h (3 Bft) SW 214 3 min 197 W/m 1,1 C 0,7 C 20,9 km/h (4 Bft)
13.02.2018 15:09 5,4 C 73 % 1010,0 hPa 0,0 l/m 10,5 km/h (2 Bft) O-SO 115 3 min 227 W/m 1,0 C 2,2 C 22,5 km/h (4 Bft)
13.02.2018 15:12 5,4 C 74 % 1010,0 hPa 0,0 l/m 10,6 km/h (2 Bft) S 182 3 min 188 W/m 1,1 C 2,1 C 22,5 km/h (4 Bft)
13.02.2018 15:15 5,4 C 74 % 1010,0 hPa 0,0 l/m 14,2 km/h (3 Bft) S 186 3 min 227 W/m 1,1 C -0,0 C 19,3 km/h (3 Bft)
13.02.2018 15:18 5,4 C 74 % 1010,1 hPa 0,0 l/m 12,2 km/h (2 Bft) S-SO 167 3 min 223 W/m 1,1 C 1,1 C 17,7 km/h (3 Bft)
13.02.2018 15:21 5,4 C 73 % 1010,1 hPa 0,0 l/m 9,7 km/h (2 Bft) S-SO 150 3 min 218 W/m 1,0 C 2,7 C 16,1 km/h (3 Bft)
13.02.2018 15:24 5,4 C 73 % 1010,0 hPa 0,0 l/m 11,4 km/h (2 Bft) S 175 3 min 209 W/m 1,0 C 1,6 C 19,3 km/h (3 Bft)
13.02.2018 15:27 5,4 C 72 % 1010,0 hPa 0,0 l/m 14,8 km/h (3 Bft) S 177 3 min 204 W/m 0,8 C -0,3 C 24,1 km/h (4 Bft)
13.02.2018 15:30 5,3 C 72 % 1010,1 hPa 0,0 l/m 13,1 km/h (3 Bft) S-SO 162 3 min 197 W/m 0,7 C 0,5 C 20,9 km/h (4 Bft)
13.02.2018 15:33 5,3 C 72 % 1010,1 hPa 0,0 l/m 11,2 km/h (2 Bft) S-SO 163 3 min 156 W/m 0,7 C 1,6 C 17,7 km/h (3 Bft)
13.02.2018 15:36 5,3 C 72 % 1010,1 hPa 0,0 l/m 11,5 km/h (2 Bft) S 178 3 min 153 W/m 0,7 C 1,4 C 17,7 km/h (3 Bft)
13.02.2018 15:39 5,3 C 72 % 1010,1 hPa 0,0 l/m 9,2 km/h (2 Bft) S 180 0 min 121 W/m 0,7 C 3,0 C 19,3 km/h (3 Bft)
13.02.2018 15:42 5,2 C 72 % 1010,1 hPa 0,0 l/m 10,0 km/h (2 Bft) S 181 0 min 107 W/m 0,6 C 2,3 C 17,7 km/h (3 Bft)
13.02.2018 15:45 5,2 C 71 % 1010,1 hPa 0,0 l/m 10,2 km/h (2 Bft) S 177 3 min 141 W/m 0,4 C 2,2 C 17,7 km/h (3 Bft)
13.02.2018 15:48 5,2 C 71 % 1010,1 hPa 0,0 l/m 11,7 km/h (2 Bft) S 178 3 min 134 W/m 0,4 C 1,2 C 19,3 km/h (3 Bft)
13.02.2018 15:51 5,2 C 71 % 1010,2 hPa 0,0 l/m 13,3 km/h (3 Bft) S 173 3 min 111 W/m 0,4 C 0,2 C 20,9 km/h (4 Bft)
13.02.2018 15:54 5,1 C 71 % 1010,1 hPa 0,0 l/m 12,5 km/h (2 Bft) S 186 0 min 105 W/m 0,3 C 0,6 C 20,9 km/h (4 Bft)
13.02.2018 15:57 5,1 C 72 % 1010,2 hPa 0,0 l/m 12,8 km/h (3 Bft) S 174 0 min 77 W/m 0,5 C 0,4 C 22,5 km/h (4 Bft)
13.02.2018 16:00 5,1 C 72 % 1010,2 hPa 0,0 l/m 9,2 km/h (2 Bft) S-SW 193 0 min 97 W/m 0,5 C 2,8 C 16,1 km/h (3 Bft)
13.02.2018 16:03 5,1 C 72 % 1010,3 hPa 0,0 l/m 9,9 km/h (2 Bft) SO 130 0 min 86 W/m 0,5 C 2,3 C 19,3 km/h (3 Bft)
13.02.2018 16:06 5,1 C 72 % 1010,3 hPa 0,0 l/m 7,6 km/h (2 Bft) S-SO 165 3 min 95 W/m 0,5 C 4,0 C 16,1 km/h (3 Bft)
13.02.2018 16:09 5,1 C 72 % 1010,3 hPa 0,0 l/m 9,0 km/h (2 Bft) S 186 3 min 107 W/m 0,5 C 2,9 C 16,1 km/h (3 Bft)
13.02.2018 16:12 5,1 C 71 % 1010,3 hPa 0,0 l/m 8,2 km/h (2 Bft) S 182 3 min 104 W/m 0,3 C 3,5 C 17,7 km/h (3 Bft)
13.02.2018 16:15 5,1 C 71 % 1010,3 hPa 0,0 l/m 9,0 km/h (2 Bft) S 175 3 min 98 W/m 0,3 C 2,9 C 17,7 km/h (3 Bft)
13.02.2018 16:18 5,0 C 71 % 1010,3 hPa 0,0 l/m 11,2 km/h (2 Bft) S-SW 194 3 min 91 W/m 0,2 C 1,3 C 19,3 km/h (3 Bft)
13.02.2018 16:21 5,0 C 72 % 1010,4 hPa 0,0 l/m 9,0 km/h (2 Bft) S 190 3 min 84 W/m 0,4 C 2,8 C 16,1 km/h (3 Bft)
13.02.2018 16:24 4,9 C 72 % 1010,4 hPa 0,0 l/m 8,7 km/h (2 Bft) S-SW 200 3 min 77 W/m 0,3 C 2,9 C 14,5 km/h (3 Bft)
13.02.2018 16:27 4,8 C 72 % 1010,4 hPa 0,0 l/m 8,8 km/h (2 Bft) S 177 3 min 70 W/m 0,2 C 2,7 C 14,5 km/h (3 Bft)
13.02.2018 16:30 4,7 C 72 % 1010,4 hPa 0,0 l/m 8,2 km/h (2 Bft) S-SO 168 0 min 63 W/m 0,1 C 3,1 C 14,5 km/h (3 Bft)
13.02.2018 16:33 4,6 C 73 % 1010,5 hPa 0,0 l/m 9,5 km/h (2 Bft) S 191 0 min 58 W/m 0,2 C 2,0 C 17,7 km/h (3 Bft)
13.02.2018 16:36 4,5 C 74 % 1010,4 hPa 0,0 l/m 8,3 km/h (2 Bft) S 182 0 min 54 W/m 0,3 C 2,8 C 14,5 km/h (3 Bft)
13.02.2018 16:39 4,4 C 74 % 1010,5 hPa 0,0 l/m 8,9 km/h (2 Bft) S 172 0 min 47 W/m 0,2 C 2,2 C 14,5 km/h (3 Bft)
13.02.2018 16:42 4,4 C 74 % 1010,6 hPa 0,0 l/m 7,5 km/h (2 Bft) S 178 0 min 26 W/m 0,2 C 3,4 C 11,3 km/h (2 Bft)
13.02.2018 16:45 4,2 C 75 % 1010,6 hPa 0,0 l/m 6,7 km/h (2 Bft) S-SO 161 0 min 23 W/m 0,2 C 3,9 C 16,1 km/h (3 Bft)
13.02.2018 16:48 4,2 C 75 % 1010,6 hPa 0,0 l/m 7,0 km/h (2 Bft) S 186 0 min 21 W/m 0,2 C 3,7 C 19,3 km/h (3 Bft)
13.02.2018 16:51 4,1 C 76 % 1010,6 hPa 0,0 l/m 9,3 km/h (2 Bft) S 171 0 min 19 W/m 0,3 C 1,6 C 14,5 km/h (3 Bft)
13.02.2018 16:54 4,1 C 76 % 1010,6 hPa 0,0 l/m 8,7 km/h (2 Bft) S 171 0 min 19 W/m 0,3 C 2,1 C 12,9 km/h (3 Bft)
13.02.2018 16:57 3,9 C 76 % 1010,7 hPa 0,0 l/m 7,2 km/h (2 Bft) S 171 0 min 18 W/m 0,1 C 3,2 C 11,3 km/h (2 Bft)
13.02.2018 17:00 3,8 C 77 % 1010,7 hPa 0,0 l/m 5,9 km/h (2 Bft) S 170 0 min 16 W/m 0,1 C 3,8 C 8,0 km/h (2 Bft)
13.02.2018 17:03 3,7 C 77 % 1010,7 hPa 0,0 l/m 4,3 km/h (1 Bft) S 169 0 min 14 W/m 0,1 C 3,7 C 8,0 km/h (2 Bft)
13.02.2018 17:06 3,6 C 78 % 1010,7 hPa 0,0 l/m 5,2 km/h (1 Bft) S-SO 161 0 min 14 W/m 0,1 C 3,6 C 8,0 km/h (2 Bft)
13.02.2018 17:09 3,5 C 78 % 1010,8 hPa 0,0 l/m 5,6 km/h (2 Bft) S-SO 162 0 min 12 W/m 0,0 C 3,5 C 9,7 km/h (2 Bft)
13.02.2018 17:12 3,4 C 78 % 1010,8 hPa 0,0 l/m 3,7 km/h (1 Bft) S-SO 161 0 min 11 W/m -0,1 C 3,4 C 8,0 km/h (2 Bft)
13.02.2018 17:15 3,3 C 78 % 1010,8 hPa 0,0 l/m 3,4 km/h (1 Bft) S-SO 162 0 min 9 W/m -0,2 C 3,3 C 8,0 km/h (2 Bft)
13.02.2018 17:18 3,2 C 79 % 1010,8 hPa 0,0 l/m 3,7 km/h (1 Bft) S-SO 163 0 min 9 W/m -0,1 C 3,2 C 8,0 km/h (2 Bft)
13.02.2018 17:21 3,2 C 79 % 1010,9 hPa 0,0 l/m 4,4 km/h (1 Bft) S-SO 163 0 min 7 W/m -0,1 C 3,2 C 9,7 km/h (2 Bft)
13.02.2018 17:24 3,2 C 79 % 1010,9 hPa 0,0 l/m 3,8 km/h (1 Bft) S-SO 163 0 min 5 W/m -0,1 C 3,2 C 8,0 km/h (2 Bft)
13.02.2018 17:27 3,2 C 79 % 1010,9 hPa 0,0 l/m 3,6 km/h (1 Bft) S-SO 163 0 min 0 W/m -0,1 C 3,2 C 6,4 km/h (2 Bft)
13.02.2018 17:30 3,2 C 79 % 1011,0 hPa 0,0 l/m 3,0 km/h (1 Bft) S-SO 162 0 min 0 W/m -0,1 C 3,2 C 8,0 km/h (2 Bft)
13.02.2018 17:33 3,2 C 79 % 1011,0 hPa 0,0 l/m 4,1 km/h (1 Bft) S-SO 149 0 min 0 W/m -0,1 C 3,2 C 6,4 km/h (2 Bft)
13.02.2018 17:36 3,2 C 79 % 1011,1 hPa 0,0 l/m 3,5 km/h (1 Bft) S-SO 149 0 min 0 W/m -0,1 C 3,2 C 4,8 km/h (1 Bft)
13.02.2018 17:39 3,2 C 78 % 1011,1 hPa 0,0 l/m 3,3 km/h (1 Bft) S-SO 148 0 min 0 W/m -0,3 C 3,2 C 4,8 km/h (1 Bft)
13.02.2018 17:42 3,1 C 78 % 1011,1 hPa 0,0 l/m 2,9 km/h (1 Bft) S-SO 148 0 min 0 W/m -0,4 C 3,1 C 4,8 km/h (1 Bft)
13.02.2018 17:45 3,1 C 78 % 1011,1 hPa 0,0 l/m 3,4 km/h (1 Bft) S-SO 148 0 min 0 W/m -0,4 C 3,1 C 4,8 km/h (1 Bft)
13.02.2018 17:48 3,0 C 79 % 1011,1 hPa 0,0 l/m 4,4 km/h (1 Bft) S-SO 150 0 min 0 W/m -0,3 C 3,0 C 11,3 km/h (2 Bft)
13.02.2018 17:51 2,9 C 79 % 1011,1 hPa 0,0 l/m 3,2 km/h (1 Bft) S-SO 148 0 min 0 W/m -0,4 C 2,9 C 4,8 km/h (1 Bft)
13.02.2018 17:54 2,9 C 79 % 1011,2 hPa 0,0 l/m 3,7 km/h (1 Bft) SO 136 0 min 0 W/m -0,4 C 2,9 C 6,4 km/h (2 Bft)
13.02.2018 17:57 2,9 C 79 % 1011,3 hPa 0,0 l/m 2,7 km/h (1 Bft) SO 139 0 min 0 W/m -0,4 C 2,9 C 4,8 km/h (1 Bft)
13.02.2018 18:00 2,8 C 79 % 1011,3 hPa 0,0 l/m 3,2 km/h (1 Bft) SO 140 0 min 0 W/m -0,5 C 2,8 C 6,4 km/h (2 Bft)
13.02.2018 18:03 2,8 C 80 % 1011,2 hPa 0,0 l/m 3,7 km/h (1 Bft) SO 143 0 min 0 W/m -0,3 C 2,8 C 4,8 km/h (1 Bft)
13.02.2018 18:06 2,8 C 79 % 1011,2 hPa 0,0 l/m 3,9 km/h (1 Bft) SO 143 0 min 0 W/m -0,5 C 2,8 C 6,4 km/h (2 Bft)
13.02.2018 18:09 2,7 C 80 % 1011,2 hPa 0,0 l/m 4,2 km/h (1 Bft) SO 142 0 min 0 W/m -0,4 C 2,7 C 6,4 km/h (2 Bft)
13.02.2018 18:12 2,7 C 80 % 1011,3 hPa 0,0 l/m 4,4 km/h (1 Bft) SO 136 0 min 0 W/m -0,4 C 2,7 C 6,4 km/h (2 Bft)
13.02.2018 18:15 2,6 C 80 % 1011,3 hPa 0,0 l/m 3,7 km/h (1 Bft) SO 142 0 min 0 W/m -0,5 C 2,6 C 8,0 km/h (2 Bft)
13.02.2018 18:18 2,6 C 80 % 1011,3 hPa 0,0 l/m 4,3 km/h (1 Bft) SO 138 0 min 0 W/m -0,5 C 2,6 C 6,4 km/h (2 Bft)
13.02.2018 18:21 2,5 C 80 % 1011,3 hPa 0,0 l/m 4,5 km/h (1 Bft) SO 132 0 min 0 W/m -0,6 C 2,5 C 6,4 km/h (2 Bft)
13.02.2018 18:24 2,4 C 80 % 1011,3 hPa 0,0 l/m 4,2 km/h (1 Bft) SO 132 0 min 0 W/m -0,7 C 2,4 C 8,0 km/h (2 Bft)
13.02.2018 18:27 2,3 C 80 % 1011,3 hPa 0,0 l/m 4,5 km/h (1 Bft) SO 133 0 min 0 W/m -0,8 C 2,3 C 6,4 km/h (2 Bft)
13.02.2018 18:30 2,3 C 81 % 1011,4 hPa 0,0 l/m 4,7 km/h (1 Bft) SO 130 0 min 0 W/m -0,6 C 2,3 C 8,0 km/h (2 Bft)
13.02.2018 18:33 2,2 C 81 % 1011,4 hPa 0,0 l/m 4,8 km/h (1 Bft) O-SO 121 0 min 0 W/m -0,7 C 2,2 C 8,0 km/h (2 Bft)
13.02.2018 18:36 2,1 C 81 % 1011,4 hPa 0,0 l/m 5,3 km/h (1 Bft) SO 128 0 min 0 W/m -0,8 C 2,1 C 6,4 km/h (2 Bft)
13.02.2018 18:39 2,1 C 82 % 1011,4 hPa 0,0 l/m 5,4 km/h (2 Bft) SO 131 0 min 0 W/m -0,6 C 2,1 C 8,0 km/h (2 Bft)
13.02.2018 18:42 2,1 C 82 % 1011,5 hPa 0,0 l/m 5,8 km/h (2 Bft) SO 132 0 min 0 W/m -0,6 C 2,1 C 11,3 km/h (2 Bft)
13.02.2018 18:45 2,1 C 83 % 1011,5 hPa 0,0 l/m 5,4 km/h (2 Bft) SO 130 0 min 0 W/m -0,5 C 2,1 C 6,4 km/h (2 Bft)
13.02.2018 18:48 2,1 C 83 % 1011,5 hPa 0,0 l/m 5,0 km/h (1 Bft) SO 146 0 min 0 W/m -0,5 C 2,1 C 11,3 km/h (2 Bft)
13.02.2018 18:51 2,1 C 83 % 1011,5 hPa 0,0 l/m 5,2 km/h (1 Bft) SO 142 0 min 0 W/m -0,5 C 2,1 C 8,0 km/h (2 Bft)
13.02.2018 18:54 2,1 C 83 % 1011,6 hPa 0,0 l/m 4,7 km/h (1 Bft) S-SO 153 0 min 0 W/m -0,5 C 2,1 C 8,0 km/h (2 Bft)
13.02.2018 18:57 2,1 C 83 % 1011,6 hPa 0,0 l/m 5,3 km/h (1 Bft) S-SO 150 0 min 0 W/m -0,5 C 2,1 C 9,7 km/h (2 Bft)
13.02.2018 19:00 2,1 C 83 % 1011,6 hPa 0,0 l/m 6,8 km/h (2 Bft) SO 145 0 min 0 W/m -0,5 C 1,7 C 12,9 km/h (3 Bft)
13.02.2018 19:03 2,1 C 83 % 1011,6 hPa 0,0 l/m 5,2 km/h (1 Bft) SO 131 0 min 0 W/m -0,5 C 2,1 C 9,7 km/h (2 Bft)
13.02.2018 19:06 2,1 C 84 % 1011,5 hPa 0,0 l/m 6,5 km/h (2 Bft) SO 124 0 min 0 W/m -0,3 C 2,0 C 11,3 km/h (2 Bft)
13.02.2018 19:09 2,1 C 84 % 1011,5 hPa 0,0 l/m 6,6 km/h (2 Bft) O-SO 116 0 min 0 W/m -0,3 C 1,9 C 11,3 km/h (2 Bft)
13.02.2018 19:12 2,0 C 84 % 1011,5 hPa 0,0 l/m 6,5 km/h (2 Bft) SO 144 0 min 0 W/m -0,4 C 1,9 C 11,3 km/h (2 Bft)
13.02.2018 19:15 2,0 C 84 % 1011,5 hPa 0,0 l/m 6,3 km/h (2 Bft) SO 132 0 min 0 W/m -0,4 C 2,0 C 12,9 km/h (3 Bft)
13.02.2018 19:18 1,9 C 84 % 1011,5 hPa 0,0 l/m 6,3 km/h (2 Bft) O-SO 114 0 min 0 W/m -0,5 C 1,9 C 11,3 km/h (2 Bft)
13.02.2018 19:21 1,9 C 84 % 1011,5 hPa 0,0 l/m 6,5 km/h (2 Bft) SO 143 0 min 0 W/m -0,5 C 1,8 C 12,9 km/h (3 Bft)
13.02.2018 19:24 1,9 C 84 % 1011,5 hPa 0,0 l/m 5,4 km/h (2 Bft) SO 140 0 min 0 W/m -0,5 C 1,9 C 8,0 km/h (2 Bft)
13.02.2018 19:27 1,9 C 84 % 1011,6 hPa 0,0 l/m 6,1 km/h (2 Bft) SO 128 0 min 0 W/m -0,5 C 1,9 C 9,7 km/h (2 Bft)
13.02.2018 19:30 1,9 C 84 % 1011,6 hPa 0,0 l/m 5,1 km/h (1 Bft) SO 138 0 min 0 W/m -0,5 C 1,9 C 8,0 km/h (2 Bft)
13.02.2018 19:33 1,9 C 84 % 1011,7 hPa 0,0 l/m 6,9 km/h (2 Bft) S-SO 159 0 min 0 W/m -0,5 C 1,4 C 11,3 km/h (2 Bft)
13.02.2018 19:36 1,9 C 84 % 1011,6 hPa 0,0 l/m 5,5 km/h (2 Bft) SO 146 0 min 0 W/m -0,5 C 1,9 C 9,7 km/h (2 Bft)
13.02.2018 19:39 1,9 C 84 % 1011,7 hPa 0,0 l/m 6,2 km/h (2 Bft) O-SO 112 0 min 0 W/m -0,5 C 1,9 C 12,9 km/h (3 Bft)
13.02.2018 19:42 1,8 C 84 % 1011,8 hPa 0,0 l/m 5,6 km/h (2 Bft) O-SO 121 0 min 0 W/m -0,6 C 1,8 C 9,7 km/h (2 Bft)
13.02.2018 19:45 1,8 C 84 % 1011,8 hPa 0,0 l/m 6,4 km/h (2 Bft) S-SO 155 0 min 0 W/m -0,6 C 1,8 C 16,1 km/h (3 Bft)
13.02.2018 19:48 1,8 C 84 % 1011,8 hPa 0,0 l/m 6,2 km/h (2 Bft) SO 142 0 min 0 W/m -0,6 C 1,8 C 12,9 km/h (3 Bft)
13.02.2018 19:51 1,8 C 84 % 1011,8 hPa 0,0 l/m 5,9 km/h (2 Bft) SO 125 0 min 0 W/m -0,6 C 1,8 C 11,3 km/h (2 Bft)
13.02.2018 19:54 1,7 C 84 % 1011,8 hPa 0,0 l/m 6,1 km/h (2 Bft) S-SO 147 0 min 0 W/m -0,7 C 1,7 C 9,7 km/h (2 Bft)
13.02.2018 19:57 1,7 C 85 % 1011,9 hPa 0,0 l/m 4,8 km/h (1 Bft) S-SO 152 0 min 0 W/m -0,5 C 1,7 C 8,0 km/h (2 Bft)
13.02.2018 20:00 1,6 C 85 % 1011,9 hPa 0,0 l/m 6,7 km/h (2 Bft) SO 134 0 min 0 W/m -0,6 C 1,3 C 12,9 km/h (3 Bft)
13.02.2018 20:03 1,6 C 85 % 1011,9 hPa 0,0 l/m 6,3 km/h (2 Bft) SO 146 0 min 0 W/m -0,6 C 1,6 C 9,7 km/h (2 Bft)
13.02.2018 20:06 1,6 C 85 % 1011,9 hPa 0,0 l/m 5,4 km/h (2 Bft) SO 136 0 min 0 W/m -0,6 C 1,6 C 9,7 km/h (2 Bft)
13.02.2018 20:09 1,6 C 85 % 1011,9 hPa 0,0 l/m 5,2 km/h (1 Bft) O-SO 121 0 min 0 W/m -0,6 C 1,6 C 11,3 km/h (2 Bft)
13.02.2018 20:12 1,6 C 85 % 1011,9 hPa 0,0 l/m 5,5 km/h (2 Bft) O-SO 115 0 min 0 W/m -0,6 C 1,6 C 9,7 km/h (2 Bft)
13.02.2018 20:15 1,5 C 85 % 1011,9 hPa 0,0 l/m 5,9 km/h (2 Bft) O-SO 117 0 min 0 W/m -0,7 C 1,5 C 12,9 km/h (3 Bft)
13.02.2018 20:18 1,5 C 85 % 1011,9 hPa 0,0 l/m 5,4 km/h (2 Bft) S-SO 147 0 min 0 W/m -0,7 C 1,5 C 9,7 km/h (2 Bft)
13.02.2018 20:21 1,4 C 85 % 1012,0 hPa 0,0 l/m 5,5 km/h (2 Bft) SO 141 0 min 0 W/m -0,8 C 1,4 C 11,3 km/h (2 Bft)
13.02.2018 20:24 1,4 C 85 % 1011,9 hPa 0,0 l/m 5,8 km/h (2 Bft) SO 140 0 min 0 W/m -0,8 C 1,4 C 11,3 km/h (2 Bft)
13.02.2018 20:27 1,4 C 85 % 1012,0 hPa 0,0 l/m 6,2 km/h (2 Bft) S-SO 164 0 min 0 W/m -0,8 C 1,4 C 11,3 km/h (2 Bft)
13.02.2018 20:30 1,4 C 85 % 1012,0 hPa 0,0 l/m 4,9 km/h (1 Bft) SO 133 0 min 0 W/m -0,8 C 1,4 C 9,7 km/h (2 Bft)
13.02.2018 20:33 1,3 C 85 % 1012,0 hPa 0,0 l/m 5,6 km/h (2 Bft) SO 136 0 min 0 W/m -0,9 C 1,3 C 11,3 km/h (2 Bft)
13.02.2018 20:36 1,3 C 85 % 1012,0 hPa 0,0 l/m 5,7 km/h (2 Bft) SO 140 0 min 0 W/m -0,9 C 1,3 C 11,3 km/h (2 Bft)
13.02.2018 20:39 1,3 C 85 % 1012,0 hPa 0,0 l/m 5,8 km/h (2 Bft) S-SO 152 0 min 0 W/m -0,9 C 1,3 C 11,3 km/h (2 Bft)
13.02.2018 20:42 1,3 C 85 % 1012,1 hPa 0,0 l/m 6,8 km/h (2 Bft) S-SO 149 0 min 0 W/m -0,9 C 0,9 C 14,5 km/h (3 Bft)
13.02.2018 20:45 1,3 C 85 % 1012,1 hPa 0,0 l/m 5,4 km/h (2 Bft) O-SO 110 0 min 0 W/m -0,9 C 1,3 C 9,7 km/h (2 Bft)
13.02.2018 20:48 1,2 C 85 % 1012,1 hPa 0,0 l/m 5,3 km/h (1 Bft) O-SO 105 0 min 0 W/m -1,0 C 1,2 C 11,3 km/h (2 Bft)
13.02.2018 20:51 1,2 C 85 % 1012,1 hPa 0,0 l/m 5,8 km/h (2 Bft) SO 141 0 min 0 W/m -1,0 C 1,2 C 11,3 km/h (2 Bft)
13.02.2018 20:54 1,2 C 85 % 1012,2 hPa 0,0 l/m 5,5 km/h (2 Bft) SO 144 0 min 0 W/m -1,0 C 1,2 C 9,7 km/h (2 Bft)
13.02.2018 20:57 1,2 C 85 % 1012,2 hPa 0,0 l/m 5,6 km/h (2 Bft) O-SO 123 0 min 0 W/m -1,0 C 1,2 C 9,7 km/h (2 Bft)
13.02.2018 21:00 1,2 C 85 % 1012,1 hPa 0,0 l/m 6,4 km/h (2 Bft) SO 142 0 min 0 W/m -1,0 C 1,2 C 11,3 km/h (2 Bft)
13.02.2018 21:03 1,2 C 85 % 1012,2 hPa 0,0 l/m 5,3 km/h (1 Bft) SO 139 0 min 0 W/m -1,0 C 1,2 C 9,7 km/h (2 Bft)
13.02.2018 21:06 1,2 C 85 % 1012,2 hPa 0,0 l/m 5,3 km/h (1 Bft) S-SO 152 0 min 0 W/m -1,0 C 1,2 C 11,3 km/h (2 Bft)
13.02.2018 21:09 1,2 C 85 % 1012,2 hPa 0,0 l/m 5,9 km/h (2 Bft) O-SO 111 0 min 0 W/m -1,0 C 1,2 C 9,7 km/h (2 Bft)
13.02.2018 21:12 1,1 C 85 % 1012,3 hPa 0,0 l/m 5,4 km/h (2 Bft) O-SO 120 0 min 0 W/m -1,1 C 1,1 C 11,3 km/h (2 Bft)
13.02.2018 21:15 1,1 C 84 % 1012,3 hPa 0,0 l/m 6,0 km/h (2 Bft) S-SO 150 0 min 0 W/m -1,3 C 1,1 C 11,3 km/h (2 Bft)
13.02.2018 21:18 1,1 C 84 % 1012,3 hPa 0,0 l/m 6,5 km/h (2 Bft) S-SO 153 0 min 0 W/m -1,3 C 1,0 C 11,3 km/h (2 Bft)
13.02.2018 21:21 1,1 C 84 % 1012,3 hPa 0,0 l/m 5,7 km/h (2 Bft) SO 132 0 min 0 W/m -1,3 C 1,1 C 12,9 km/h (3 Bft)
13.02.2018 21:24 1,1 C 84 % 1012,3 hPa 0,0 l/m 6,3 km/h (2 Bft) SO 135 0 min 0 W/m -1,3 C 1,1 C 12,9 km/h (3 Bft)
13.02.2018 21:27 1,0 C 84 % 1012,3 hPa 0,0 l/m 6,2 km/h (2 Bft) S-SO 147 0 min 0 W/m -1,4 C 1,0 C 11,3 km/h (2 Bft)
13.02.2018 21:30 1,0 C 85 % 1012,4 hPa 0,0 l/m 7,1 km/h (2 Bft) S-SO 158 0 min 0 W/m -1,2 C 0,3 C 14,5 km/h (3 Bft)
13.02.2018 21:33 0,9 C 85 % 1012,3 hPa 0,0 l/m 6,3 km/h (2 Bft) O-SO 117 0 min 0 W/m -1,3 C 0,9 C 11,3 km/h (2 Bft)
13.02.2018 21:36 0,9 C 84 % 1012,4 hPa 0,0 l/m 5,8 km/h (2 Bft) SO 144 0 min 0 W/m -1,5 C 0,9 C 12,9 km/h (3 Bft)
13.02.2018 21:39 0,9 C 84 % 1012,3 hPa 0,0 l/m 6,2 km/h (2 Bft) O-SO 119 0 min 0 W/m -1,5 C 0,9 C 9,7 km/h (2 Bft)
13.02.2018 21:42 0,9 C 85 % 1012,4 hPa 0,0 l/m 7,5 km/h (2 Bft) S-SO 149 0 min 0 W/m -1,3 C -0,2 C 14,5 km/h (3 Bft)
13.02.2018 21:45 0,8 C 84 % 1012,3 hPa 0,0 l/m 6,3 km/h (2 Bft) SO 146 0 min 0 W/m -1,6 C 0,8 C 14,5 km/h (3 Bft)
13.02.2018 21:48 0,8 C 84 % 1012,3 hPa 0,0 l/m 6,7 km/h (2 Bft) SO 130 0 min 0 W/m -1,6 C 0,5 C 12,9 km/h (3 Bft)
13.02.2018 21:51 0,8 C 84 % 1012,3 hPa 0,0 l/m 6,1 km/h (2 Bft) SO 143 0 min 0 W/m -1,6 C 0,8 C 14,5 km/h (3 Bft)
13.02.2018 21:54 0,8 C 84 % 1012,3 hPa 0,0 l/m 5,5 km/h (2 Bft) SO 143 0 min 0 W/m -1,6 C 0,8 C 12,9 km/h (3 Bft)
13.02.2018 21:57 0,7 C 84 % 1012,4 hPa 0,0 l/m 5,7 km/h (2 Bft) SO 137 0 min 0 W/m -1,7 C 0,7 C 11,3 km/h (2 Bft)
13.02.2018 22:00 0,7 C 84 % 1012,4 hPa 0,0 l/m 5,6 km/h (2 Bft) S-SO 155 0 min 0 W/m -1,7 C 0,7 C 11,3 km/h (2 Bft)
13.02.2018 22:03 0,7 C 84 % 1012,4 hPa 0,0 l/m 4,6 km/h (1 Bft) SO 130 0 min 0 W/m -1,7 C 0,7 C 8,0 km/h (2 Bft)
13.02.2018 22:06 0,6 C 84 % 1012,4 hPa 0,0 l/m 3,4 km/h (1 Bft) SO 140 0 min 0 W/m -1,8 C 0,6 C 6,4 km/h (2 Bft)
13.02.2018 22:09 0,6 C 85 % 1012,4 hPa 0,0 l/m 5,1 km/h (1 Bft) SO 126 0 min 0 W/m -1,6 C 0,6 C 11,3 km/h (2 Bft)
13.02.2018 22:12 0,5 C 85 % 1012,4 hPa 0,0 l/m 4,9 km/h (1 Bft) S-SO 153 0 min 0 W/m -1,7 C 0,5 C 9,7 km/h (2 Bft)
13.02.2018 22:15 0,4 C 85 % 1012,4 hPa 0,0 l/m 4,3 km/h (1 Bft) S-SO 151 0 min 0 W/m -1,8 C 0,4 C 8,0 km/h (2 Bft)
13.02.2018 22:18 0,4 C 85 % 1012,5 hPa 0,0 l/m 4,3 km/h (1 Bft) O-SO 109 0 min 0 W/m -1,8 C 0,4 C 9,7 km/h (2 Bft)
13.02.2018 22:21 0,3 C 85 % 1012,5 hPa 0,0 l/m 4,7 km/h (1 Bft) SO 135 0 min 0 W/m -1,9 C 0,3 C 6,4 km/h (2 Bft)
13.02.2018 22:24 0,3 C 85 % 1012,5 hPa 0,0 l/m 4,9 km/h (1 Bft) SO 137 0 min 0 W/m -1,9 C 0,3 C 12,9 km/h (3 Bft)
13.02.2018 22:27 0,3 C 85 % 1012,4 hPa 0,0 l/m 4,1 km/h (1 Bft) SO 132 0 min 0 W/m -1,9 C 0,3 C 8,0 km/h (2 Bft)
13.02.2018 22:30 0,3 C 85 % 1012,5 hPa 0,0 l/m 5,7 km/h (2 Bft) SO 135 0 min 0 W/m -1,9 C 0,3 C 9,7 km/h (2 Bft)
13.02.2018 22:33 0,3 C 85 % 1012,6 hPa 0,0 l/m 6,0 km/h (2 Bft) S-SO 150 0 min 0 W/m -1,9 C 0,3 C 11,3 km/h (2 Bft)
13.02.2018 22:36 0,2 C 85 % 1012,5 hPa 0,0 l/m 5,2 km/h (1 Bft) SO 142 0 min 0 W/m -2,0 C 0,2 C 8,0 km/h (2 Bft)
13.02.2018 22:39 0,2 C 85 % 1012,6 hPa 0,0 l/m 6,2 km/h (2 Bft) SO 140 0 min 0 W/m -2,0 C 0,2 C 12,9 km/h (3 Bft)
13.02.2018 22:42 0,2 C 85 % 1012,6 hPa 0,0 l/m 5,6 km/h (2 Bft) S-SO 151 0 min 0 W/m -2,0 C 0,2 C 9,7 km/h (2 Bft)
13.02.2018 22:45 0,2 C 85 % 1012,6 hPa 0,0 l/m 6,2 km/h (2 Bft) SO 146 0 min 0 W/m -2,0 C 0,2 C 11,3 km/h (2 Bft)
13.02.2018 22:48 0,2 C 85 % 1012,6 hPa 0,0 l/m 6,1 km/h (2 Bft) SO 136 0 min 0 W/m -2,0 C 0,2 C 12,9 km/h (3 Bft)
13.02.2018 22:51 0,2 C 84 % 1012,6 hPa 0,0 l/m 5,8 km/h (2 Bft) SO 126 0 min 0 W/m -2,2 C 0,2 C 11,3 km/h (2 Bft)
13.02.2018 22:54 0,2 C 84 % 1012,6 hPa 0,0 l/m 4,8 km/h (1 Bft) S-SO 148 0 min 0 W/m -2,2 C 0,2 C 11,3 km/h (2 Bft)
13.02.2018 22:57 0,2 C 84 % 1012,7 hPa 0,0 l/m 3,9 km/h (1 Bft) S-SO 153 0 min 0 W/m -2,2 C 0,2 C 8,0 km/h (2 Bft)
13.02.2018 23:00 0,2 C 84 % 1012,7 hPa 0,0 l/m 4,4 km/h (1 Bft) S-SO 149 0 min 0 W/m -2,2 C 0,2 C 8,0 km/h (2 Bft)
13.02.2018 23:03 0,1 C 84 % 1012,7 hPa 0,0 l/m 4,3 km/h (1 Bft) SO 136 0 min 0 W/m -2,3 C 0,1 C 8,0 km/h (2 Bft)
13.02.2018 23:06 0,1 C 84 % 1012,7 hPa 0,0 l/m 4,0 km/h (1 Bft) SO 131 0 min 0 W/m -2,3 C 0,1 C 6,4 km/h (2 Bft)
13.02.2018 23:09 0,1 C 84 % 1012,7 hPa 0,0 l/m 5,6 km/h (2 Bft) SO 143 0 min 0 W/m -2,3 C 0,1 C 8,0 km/h (2 Bft)
13.02.2018 23:12 0,0 C 85 % 1012,8 hPa 0,0 l/m 4,8 km/h (1 Bft) SO 126 0 min 0 W/m -2,2 C 0,0 C 11,3 km/h (2 Bft)
13.02.2018 23:15 0,0 C 84 % 1012,8 hPa 0,0 l/m 4,0 km/h (1 Bft) SO 143 0 min 0 W/m -2,4 C 0,0 C 6,4 km/h (2 Bft)
13.02.2018 23:18 -0,1 C 84 % 1012,8 hPa 0,0 l/m 5,0 km/h (1 Bft) S-SO 153 0 min 0 W/m -2,5 C -0,1 C 11,3 km/h (2 Bft)
13.02.2018 23:21 -0,1 C 84 % 1012,7 hPa 0,0 l/m 3,6 km/h (1 Bft) S-SO 151 0 min 0 W/m -2,5 C -0,1 C 8,0 km/h (2 Bft)
13.02.2018 23:24 -0,1 C 84 % 1012,8 hPa 0,0 l/m 3,6 km/h (1 Bft) O-SO 123 0 min 0 W/m -2,5 C -0,1 C 6,4 km/h (2 Bft)
13.02.2018 23:27 -0,1 C 84 % 1012,7 hPa 0,0 l/m 5,4 km/h (2 Bft) S-SO 163 0 min 0 W/m -2,5 C -0,1 C 9,7 km/h (2 Bft)
13.02.2018 23:30 -0,1 C 84 % 1012,8 hPa 0,0 l/m 4,9 km/h (1 Bft) SO 138 0 min 0 W/m -2,5 C -0,1 C 9,7 km/h (2 Bft)
13.02.2018 23:33 -0,1 C 84 % 1012,8 hPa 0,0 l/m 5,3 km/h (1 Bft) S-SO 153 0 min 0 W/m -2,5 C -0,1 C 9,7 km/h (2 Bft)
13.02.2018 23:36 -0,1 C 84 % 1012,9 hPa 0,0 l/m 5,1 km/h (1 Bft) S-SO 153 0 min 0 W/m -2,5 C -0,1 C 11,3 km/h (2 Bft)
13.02.2018 23:39 -0,1 C 84 % 1013,0 hPa 0,0 l/m 4,5 km/h (1 Bft) SO 144 0 min 0 W/m -2,5 C -0,1 C 8,0 km/h (2 Bft)
13.02.2018 23:42 -0,1 C 84 % 1013,0 hPa 0,0 l/m 4,0 km/h (1 Bft) S-SO 152 0 min 0 W/m -2,5 C -0,1 C 8,0 km/h (2 Bft)
13.02.2018 23:45 -0,1 C 84 % 1013,0 hPa 0,0 l/m 4,8 km/h (1 Bft) S-SO 158 0 min 0 W/m -2,5 C -0,1 C 11,3 km/h (2 Bft)
13.02.2018 23:48 -0,1 C 84 % 1013,1 hPa 0,0 l/m 3,7 km/h (1 Bft) S-SO 157 0 min 0 W/m -2,5 C -0,1 C 8,0 km/h (2 Bft)
13.02.2018 23:51 -0,1 C 84 % 1013,1 hPa 0,0 l/m 4,5 km/h (1 Bft) S-SO 158 0 min 0 W/m -2,5 C -0,1 C 9,7 km/h (2 Bft)
13.02.2018 23:54 -0,2 C 84 % 1013,1 hPa 0,0 l/m 4,1 km/h (1 Bft) S-SO 148 0 min 0 W/m -2,6 C -0,2 C 11,3 km/h (2 Bft)
13.02.2018 23:57 -0,2 C 85 % 1013,1 hPa 0,0 l/m 4,4 km/h (1 Bft) S-SO 164 0 min 0 W/m -2,4 C -0,2 C 9,7 km/h (2 Bft)
_ Min-Zeit 07:09 15:45 14:48 - 17:57 - - - - 23:54 09:09 17:36
Minimum _ -0,7 C 71 % 1010,0 hPa - 2,7 km/h (1 Bft) - - - - -2,6 C -5,4 C 4,8 km/h (1 Bft)
_ Max-Zeit 13:48 03:42 23:48 00:00 15:27 - - 11:15 12:36 13:48 16:06 00:39
Maximum _ 5,7 C 94 % 1013,1 hPa 0,0 l/m 14,8 km/h
S (3 Bft)
- - 3 min 369 W/m 2,0 C 4,0 C 24,1 km/h
SW (4 Bft)
Durchschnitt _ 1,7 C 86 % 1011,1 hPa #0,0 l/m 8,9 km/h (2 Bft) S - #4:57 h 162 W/m -0,4 C -0,8 C 15,4 km/h (3 Bft)
2018 Cux-Wetter.de -Die Nutzung der Wetterdaten nur mit ausdrcklicher Genehmigung